GFSWCAN_850_rhum_168.txt.gz
RH
100 98 100 98 95 96 98 98 97 82 71 63 78 96 88 91 77 72 70 71 69 68 65 66 65 65 66 63 58 64 61 69 66 65 64 59 66 58 60 52 60 60 72 73 68 73 78 51 48 49 46 48 49 56
99 100 98 93 89 86 82 76 73 67 63 60 61 77 89 87 89 79 82 79 76 74 75 70 76 74 70 69 67 65 65 65 63 64 67 64 64 68 61 57 62 58 50 51 54 52 50 52 48 49 55 53 57 58
74 69 67 64 62 59 52 57 54 61 60 48 42 58 94 96 95 91 90 90 87 86 81 83 73 68 69 73 79 78 79 67 68 63 70 72 75 65 69 61 57 53 56 56 58 42 45 48 57 57 60 61 58 61
67 57 50 46 43 40 33 24 21 17 17 14 14 36 66 98 100 99 96 97 99 96 99 88 79 75 72 74 73 77 82 81 80 78 82 90 99 74 80 63 62 52 58 52 52 48 47 46 66 78 77 77 77 79
80 67 55 53 55 52 61 59 57 63 52 50 41 38 52 81 100 100 100 100 100 90 97 92 81 76 69 67 73 75 87 97 99 98 98 93 98 92 98 81 89 64 56 57 57 45 64 69 76 72 76 77 79 78
57 70 75 68 70 85 90 98 98 97 86 95 92 80 77 100 99 100 100 100 98 100 99 100 100 97 81 85 88 90 89 93 100 99 97 99 98 88 99 92 56 64 63 80 70 74 71 70 76 78 79 77 80 90
59 75 82 78 72 91 94 98 96 91 92 98 100 100 100 100 100 100 97 97 100 100 99 100 98 99 100 98 95 93 97 100 100 98 99 99 99 100 100 94 63 69 66 66 73 76 75 79 87 81 85 81 70 64
74 64 66 84 81 78 94 92 93 84 79 74 78 92 99 100 99 100 100 96 98 99 99 100 90 77 82 98 91 93 92 100 100 99 100 98 98 99 94 64 74 76 72 70 78 79 79 78 73 69 58 57 50 47
90 82 65 70 87 84 73 67 71 92 95 91 85 89 87 86 94 95 99 100 100 96 99 99 88 75 91 90 86 92 85 89 85 91 91 95 75 84 64 74 79 73 66 72 76 75 74 66 60 56 47 40 40 40
78 83 83 69 63 87 85 73 68 71 93 99 91 75 52 60 63 69 80 90 96 98 100 94 84 78 84 95 92 88 91 74 91 70 89 93 74 61 59 59 67 60 58 65 75 69 65 63 51 34 32 34 32 27
74 76 78 86 73 77 80 80 85 78 86 87 75 60 71 74 76 64 77 78 92 94 88 98 94 80 81 78 75 90 82 85 92 68 83 75 72 60 56 61 59 48 48 49 44 39 51 36 33 38 35 31 29 32
46 70 83 86 85 80 88 85 92 84 62 48 54 82 97 96 95 87 94 90 90 72 77 90 93 90 93 85 79 94 89 90 87 85 89 80 55 47 45 45 30 34 49 58 61 54 45 44 44 48 46 45 38 40
42 30 43 70 88 88 86 94 97 94 51 57 70 89 83 92 93 91 95 92 94 90 95 99 93 97 96 98 93 90 95 88 89 91 75 62 56 42 42 42 41 47 54 58 53 59 66 66 64 68 71 69 66 54
52 42 32 30 45 87 90 98 99 89 55 61 73 93 90 95 89 82 71 74 71 76 98 91 96 94 100 92 86 93 89 89 92 93 83 59 46 45 49 52 51 33 33 37 40 34 31 30 34 36 36 35 40 44
63 52 43 36 46 62 86 97 99 94 60 61 64 80 91 66 68 70 70 63 58 74 100 98 96 97 91 93 80 90 92 88 73 75 60 42 34 44 34 23 24 27 29 30 34 38 37 38 38 36 33 37 39 40
66 70 50 33 37 65 78 98 98 97 77 66 63 66 73 72 71 61 54 50 51 78 99 97 93 93 92 86 92 86 88 88 69 77 45 40 26 24 25 28 31 36 42 45 45 43 44 43 41 45 47 42 38 42
73 100 49 52 58 63 91 100 97 97 92 96 78 55 43 43 38 34 36 44 53 99 90 94 98 89 88 91 91 79 88 63 48 29 26 25 28 29 30 37 42 47 50 49 48 46 45 45 47 45 40 30 37 44
84 67 70 68 66 95 98 100 96 96 96 89 70 62 45 41 40 40 45 53 88 98 95 92 79 89 89 96 80 68 57 30 27 24 25 30 36 42 48 53 53 52 55 57 55 50 48 47 44 37 34 32 35 35
60 68 78 74 74 74 91 94 96 96 95 88 68 55 55 50 42 44 42 48 81 99 88 99 98 94 75 64 51 36 33 32 32 37 44 48 53 57 58 59 61 60 55 49 46 46 43 43 42 38 37 40 46 49
71 75 82 79 83 68 72 89 85 91 96 92 79 68 61 55 51 55 66 60 88 91 98 97 88 65 63 46 40 36 38 43 50 58 61 62 63 62 60 57 46 45 47 45 44 42 44 48 46 47 51 58 71 72
81 72 88 91 96 71 83 96 94 93 87 86 91 86 73 75 72 78 73 78 100 98 95 73 57 48 45 42 45 49 52 55 59 61 65 65 39 44 44 44 48 52 55 59 67 66 76 74 73 71 73 77 81 84
90 93 96 100 94 89 91 100 93 95 93 91 92 95 95 91 84 80 87 100 100 71 66 55 47 43 47 48 47 52 51 39 34 37 39 43 46 48 52 58 69 69 70 75 77 83 85 83 84 88 92 92 93 92
98 97 97 96 86 98 96 99 97 99 97 99 99 100 100 100 94 93 100 100 81 55 46 46 44 46 48 48 47 33 32 34 37 40 50 58 63 66 68 68 71 78 81 81 85 91 93 94 96 99 97 97 96 95
96 95 93 84 80 96 98 97 96 96 98 98 99 100 100 100 100 100 100 94 51 41 41 41 44 46 46 42 33 31 34 38 46 54 63 70 74 71 78 79 81 85 91 96 100 100 100 98 100 97 94 95 95 96
92 95 88 100 98 96 95 95 96 95 98 97 100 100 98 100 100 100 100 78 40 38 33 28 30 31 31 28 29 31 40 53 62 69 67 77 82 80 76 78 81 84 89 98 97 98 93 96 98 98 98 97 97 97
93 99 98 89 97 92 94 96 97 98 95 100 100 100 100 97 100 99 85 41 36 24 25 30 30 30 32 35 39 42 55 66 75 79 67 74 77 83 85 89 92 90 95 95 96 96 96 92 94 94 95 96 99 97
98 100 97 96 90 87 94 94 91 92 100 100 100 98 99 100 100 77 43 35 30 33 34 35 37 44 54 60 65 70 75 80 81 75 70 68 73 80 88 96 95 96 97 97 96 96 97 97 96 96 96 94 93 97
86 91 95 96 94 86 91 99 97 96 91 89 90 100 100 98 75 32 32 37 36 38 43 52 59 66 74 78 82 83 80 74 68 65 65 68 75 80 94 96 96 96 96 97 96 97 98 98 97 96 95 97 99 96
94 96 92 100 98 97 86 86 83 67 66 76 88 86 79 49 40 38 40 44 48 56 61 72 82 87 88 90 85 75 70 69 68 72 82 85 80 82 93 95 95 95 96 96 95 96 96 98 98 97 97 96 93 94
97 95 83 96 93 84 59 63 60 56 55 58 56 54 50 44 47 57 63 69 72 78 86 90 93 92 89 78 69 63 67 73 85 97 98 90 90 90 94 95 95 95 96 96 97 96 95 96 95 95 96 96 96 95
97 98 84 90 88 67 66 62 65 68 74 73 71 73 75 72 71 86 93 98 97 97 98 95 96 94 84 72 71 69 65 74 87 93 97 98 98 94 96 97 97 97 98 98 98 98 96 90 92 95 96 96 96 95
100 100 100 100 88 82 81 83 80 76 76 77 79 80 82 82 88 97 96 96 96 95 95 95 94 88 82 74 79 85 94 93 95 97 97 95 95 96 96 97 98 99 99 100 99 94 90 89 95 98 98 98 100 98
98 98 97 95 93 88 84 78 79 84 85 83 84 91 90 92 95 96 95 95 95 88 90 95 95 83 76 76 80 88 92 93 95 95 97 96 96 97 98 98 100 97 94 91 89 90 94 97 99 100 100 100 100 100

GFSWCAN_850_rhum_171.txt.gz
RH
91 93 95 92 86 82 84 81 78 77 76 86 80 72 63 87 87 78 70 69 67 78 69 55 57 63 60 57 46 59 59 62 56 57 50 47 50 44 50 39 47 50 56 63 54 61 68 44 44 45 46 46 49 51
96 99 92 95 96 99 95 93 89 87 80 92 70 64 63 78 85 87 78 78 77 74 80 65 67 67 65 66 63 62 61 53 49 53 53 50 54 52 45 48 45 53 37 42 42 42 44 46 45 48 52 52 53 55
100 100 100 100 98 95 91 86 83 80 76 72 68 62 60 62 94 87 87 84 85 85 92 82 80 76 73 73 72 70 70 67 68 67 58 56 67 47 58 46 45 38 38 50 46 34 35 40 45 48 63 67 67 64
100 98 93 89 74 66 59 56 48 43 26 19 33 56 49 61 98 97 89 90 91 90 96 80 76 72 72 66 71 79 88 82 77 77 70 76 81 62 59 53 58 43 50 48 46 39 37 38 42 64 72 70 68 70
97 94 75 59 55 51 54 52 42 30 23 22 20 20 31 68 99 100 100 100 98 93 96 91 77 76 71 67 64 69 80 95 94 98 96 96 99 91 89 80 75 53 53 54 54 41 48 55 60 68 72 73 79 83
98 96 93 81 66 79 86 99 96 86 78 74 65 54 44 69 93 100 100 99 99 100 99 100 100 96 81 81 82 83 86 97 98 97 87 84 79 79 80 77 47 54 54 55 59 68 68 66 67 73 78 81 79 79
93 93 86 71 74 87 91 99 96 90 94 97 98 98 85 93 100 100 98 98 100 100 99 99 98 98 100 98 96 94 93 100 100 99 100 97 98 98 99 93 57 54 66 69 70 68 58 69 72 83 67 64 58 58
83 78 86 82 80 94 94 99 92 82 76 76 95 100 100 100 100 99 98 100 99 99 99 100 97 79 83 94 92 96 99 98 99 99 100 98 98 100 99 69 59 61 69 70 76 61 71 72 62 61 59 55 56 47
94 81 61 76 81 78 74 80 82 82 87 84 81 90 96 100 99 99 100 100 100 99 99 98 85 81 80 91 90 91 92 81 85 82 97 98 77 87 64 56 61 68 69 56 75 69 69 64 55 53 52 48 46 39
94 91 80 62 69 81 80 71 66 64 73 87 80 70 63 80 78 89 96 98 98 100 99 92 84 72 81 83 77 76 82 70 80 62 76 84 68 54 52 51 56 67 54 54 73 64 46 51 41 36 43 44 44 43
82 78 81 85 67 71 81 78 73 75 82 91 85 81 72 73 65 62 86 86 92 86 89 97 87 74 78 72 74 78 86 73 82 64 73 67 58 43 42 47 56 68 62 39 42 44 52 58 62 56 49 46 47 50
61 71 76 77 85 80 83 83 84 77 62 58 65 72 72 88 85 76 81 80 78 63 74 77 77 80 95 85 73 91 83 81 80 74 79 70 42 41 46 42 49 47 39 33 35 37 45 56 56 62 60 53 52 56
37 38 68 82 88 86 85 94 94 90 50 62 64 85 91 92 85 79 87 84 84 79 91 90 86 84 95 97 84 85 89 81 73 82 65 50 41 46 47 62 67 48 38 39 35 34 39 37 29 30 32 33 48 54
60 47 33 35 62 91 93 94 97 94 54 50 71 87 84 89 78 69 58 66 77 90 91 84 84 81 82 82 73 82 76 82 84 81 71 43 48 48 48 47 52 41 27 24 27 29 38 33 33 37 38 45 53 54
70 60 50 39 37 49 87 96 99 97 53 51 64 73 89 73 75 82 72 63 63 90 89 90 93 82 82 85 77 82 89 84 66 66 48 56 33 34 43 40 25 23 32 42 47 50 49 48 49 52 51 47 45 44
71 73 54 43 44 64 72 88 98 98 85 61 60 78 77 80 85 76 73 85 57 94 98 94 85 88 84 79 86 83 78 78 60 62 64 29 31 27 20 20 25 29 33 42 46 48 50 51 54 53 52 46 38 36
71 73 53 51 55 63 70 92 98 96 96 95 94 66 55 58 66 67 52 58 52 88 78 88 93 84 85 88 83 66 77 54 50 46 34 32 30 30 35 40 44 47 47 48 53 54 53 54 55 57 56 35 35 41
75 65 64 68 68 93 90 95 95 96 96 96 90 85 68 52 47 48 44 46 80 83 94 90 87 87 83 84 72 60 61 39 31 28 32 37 42 47 51 52 50 50 51 55 55 53 52 51 54 53 47 47 56 53
63 62 71 71 74 63 91 98 97 98 97 95 90 68 70 63 45 39 42 56 81 89 86 92 90 90 72 53 46 43 46 51 49 47 44 48 54 56 56 55 54 52 50 50 56 62 65 61 64 66 67 72 75 75
71 74 74 80 80 67 76 87 87 97 96 94 80 74 74 81 65 59 61 78 95 99 100 96 82 59 58 52 51 51 51 48 51 56 57 57 55 50 54 58 65 67 68 71 76 77 76 76 76 76 77 80 84 86
82 77 87 86 89 72 71 87 94 94 93 96 88 83 93 76 89 99 96 99 100 89 83 77 59 49 50 51 54 52 53 58 61 60 60 60 38 38 47 59 68 74 76 77 78 78 77 77 80 86 91 94 95 96
79 84 84 96 91 77 76 88 98 93 94 98 95 95 100 96 99 96 99 100 99 82 76 56 50 48 55 57 53 59 58 55 48 39 35 37 44 47 56 64 74 73 71 72 80 89 94 97 99 98 99 97 97 96
89 90 92 96 96 99 94 98 98 96 95 96 100 96 94 98 98 87 100 100 99 53 42 42 42 48 49 47 55 51 47 43 36 35 38 43 45 60 68 70 74 83 86 83 90 100 100 99 96 96 95 95 94 93
93 93 95 96 95 95 96 97 97 99 100 95 92 92 93 97 100 100 93 91 50 38 38 37 44 47 45 38 34 30 30 32 34 38 44 54 68 69 77 77 78 83 93 97 100 98 95 96 98 94 96 97 95 95
96 97 95 100 100 98 96 94 92 90 94 91 92 90 93 100 95 96 89 76 40 38 38 41 37 32 30 29 33 35 37 41 46 55 60 72 76 74 71 75 81 82 89 100 96 96 94 96 97 98 98 96 95 96
95 99 96 92 96 92 89 96 96 94 89 94 92 97 98 92 99 94 80 50 42 40 32 30 32 37 38 40 45 54 62 69 73 74 70 75 78 82 83 88 89 88 98 99 98 98 96 100 99 96 96 95 99 97
96 98 96 94 90 87 90 90 87 86 94 94 93 97 94 100 96 73 53 48 43 38 40 40 40 42 50 60 70 76 81 82 79 74 68 67 72 80 87 95 95 96 95 96 96 98 98 99 99 99 96 93 95 97
90 94 92 98 94 89 86 87 91 93 86 84 86 98 97 87 74 50 44 48 46 44 46 50 57 67 78 84 85 83 77 71 65 62 62 62 73 83 90 95 96 96 96 97 96 97 98 99 98 96 97 98 96 95
91 88 88 96 95 92 84 84 84 72 72 80 84 82 79 64 52 49 50 51 57 61 68 76 88 93 90 86 78 72 70 67 67 70 72 73 75 82 95 96 95 96 96 95 93 96 98 98 98 97 95 94 94 95
97 96 90 93 90 87 71 70 68 65 68 70 67 62 56 58 62 70 75 83 87 93 97 97 97 96 91 82 72 63 62 67 75 88 95 94 97 92 93 94 92 93 96 97 98 97 98 100 92 92 96 97 97 96
98 90 83 84 82 64 62 62 62 63 70 72 71 73 74 78 90 98 97 95 95 96 96 96 96 96 92 74 68 61 56 66 77 86 94 95 94 95 94 94 98 99 99 100 100 98 93 90 93 97 99 99 98 97
100 100 96 100 82 80 80 81 82 83 84 84 84 87 92 93 97 96 96 96 96 95 95 95 84 76 74 73 74 78 83 87 90 91 92 91 93 94 95 99 99 99 100 99 96 92 94 95 97 98 99 100 100 100
99 99 99 98 92 87 87 85 86 85 89 88 90 92 90 94 97 97 97 97 94 91 90 88 86 80 78 76 80 85 94 95 94 94 97 98 97 96 100 98 96 99 98 96 93 93 96 98 98 98 99 100 100 99

GFSWCAN_850_rhum_174.txt.gz
RH
89 98 100 95 93 93 95 94 92 86 87 86 84 82 83 73 84 80 68 62 56 69 71 50 50 54 53 53 58 60 63 64 64 69 62 60 59 55 55 44 60 72 82 82 69 73 79 44 44 52 55 47 50 54
92 100 100 95 96 98 96 91 86 86 84 87 88 94 92 77 81 91 82 70 72 71 80 65 61 60 60 63 62 57 64 55 61 67 67 64 67 61 55 59 46 62 50 56 55 61 46 43 45 47 51 54 60 63
99 100 100 99 98 100 96 94 94 100 96 88 86 89 83 70 75 98 89 82 80 80 84 83 76 69 67 67 65 65 67 65 63 64 69 76 77 63 71 64 54 46 39 58 55 43 41 40 42 47 59 66 70 69
100 99 100 100 100 100 95 99 97 91 84 81 79 76 71 66 79 99 99 89 86 85 93 89 81 70 71 69 69 72 73 74 73 72 71 84 89 64 76 72 70 54 53 56 59 48 43 40 56 64 69 70 69 69
100 100 100 100 100 98 97 85 77 67 58 48 37 25 24 52 66 99 99 99 94 90 94 94 84 81 80 75 67 70 80 88 89 94 93 95 90 82 81 86 82 58 55 61 62 47 50 58 64 65 68 71 76 75
99 99 99 99 99 98 96 87 82 66 45 31 30 31 39 41 76 99 100 94 84 100 99 100 100 92 82 79 81 82 89 97 92 96 88 80 80 76 95 95 53 49 53 54 57 59 63 66 79 76 65 64 61 64
98 99 99 98 98 99 94 97 91 86 84 81 80 89 77 71 89 99 97 96 95 90 99 100 100 100 100 100 97 94 94 97 95 99 99 92 86 78 99 84 58 57 52 60 61 67 63 63 69 73 55 48 47 44
98 98 96 99 99 99 100 99 90 87 86 97 96 99 88 99 99 100 96 96 100 100 99 100 99 85 94 97 97 99 100 99 100 98 100 98 100 100 98 85 65 59 59 64 69 65 55 54 48 28 28 33 34 32
98 98 96 93 93 94 98 96 93 85 78 79 99 100 99 100 100 100 100 99 100 99 99 99 92 95 86 91 89 90 89 93 87 91 98 99 90 96 81 72 59 56 64 63 64 58 65 44 31 26 28 29 33 29
98 95 93 97 91 93 78 65 61 66 81 80 76 86 98 99 99 99 100 99 100 100 99 99 85 89 82 83 79 82 78 84 94 76 81 98 84 57 53 53 53 53 64 63 60 74 48 34 26 23 30 40 43 42
94 89 97 88 75 84 81 72 66 66 67 79 77 84 92 92 85 84 91 91 95 91 96 99 89 92 84 85 91 80 96 90 90 88 86 89 86 52 39 40 39 43 53 61 58 35 32 33 41 47 41 36 38 37
76 74 78 85 80 80 75 74 74 69 65 70 71 69 67 65 63 82 94 82 87 82 80 81 84 90 88 79 86 87 95 92 95 79 94 94 64 39 40 42 48 54 65 68 64 37 36 33 35 47 48 46 36 30
42 56 75 76 76 85 90 86 86 70 54 66 55 69 82 83 93 88 90 95 94 75 84 86 89 85 82 87 86 93 88 94 72 94 84 75 45 42 42 40 51 56 54 46 32 27 26 33 37 41 34 32 37 42
54 41 45 75 85 86 89 98 96 75 53 45 64 89 92 99 94 88 83 88 82 85 85 81 86 83 83 86 81 93 92 91 96 97 87 85 50 34 30 45 54 53 42 29 28 40 40 45 45 43 44 45 52 53
68 55 43 34 40 69 93 92 98 95 52 48 58 85 98 77 76 75 74 73 86 86 84 90 88 79 85 93 87 92 98 97 84 85 76 53 34 25 27 28 33 33 33 34 33 34 38 43 46 48 48 52 56 58
65 60 50 45 41 44 68 96 99 99 96 69 61 85 81 80 94 84 72 76 89 88 85 82 83 82 94 82 93 95 92 91 82 80 45 44 23 24 23 27 30 35 38 40 42 46 48 48 52 54 52 53 46 44
76 69 53 44 63 61 72 82 95 96 96 96 97 84 65 64 76 65 67 61 84 77 95 84 93 89 91 98 95 86 92 86 54 47 42 37 33 33 36 42 45 47 46 47 45 42 42 41 44 47 46 41 49 55
70 67 55 62 58 58 62 86 93 94 96 96 97 89 71 53 64 64 55 48 64 79 83 92 82 93 95 96 92 80 55 34 33 34 39 43 43 44 48 53 54 48 46 47 51 56 59 59 65 70 73 72 75 74
57 63 64 66 59 53 78 84 89 97 97 92 89 85 70 69 56 56 52 59 65 72 77 85 96 97 92 66 52 36 38 45 48 51 53 50 49 52 56 55 41 42 49 58 66 72 76 77 76 74 75 77 79 81
78 73 70 80 66 66 79 83 84 98 93 97 92 98 96 95 85 61 62 77 88 83 99 92 93 73 63 33 41 48 52 55 57 57 57 55 56 58 44 38 46 52 55 63 70 77 76 76 75 79 84 88 92 96
96 90 85 80 79 66 65 79 90 100 100 92 100 95 95 82 81 84 98 99 96 86 87 79 51 37 38 44 52 53 53 56 60 61 61 66 59 45 40 44 51 52 64 70 74 76 80 80 87 97 99 99 98 97
95 96 96 98 87 78 81 95 99 99 96 100 94 100 99 100 100 100 97 99 90 81 67 49 43 46 50 57 52 54 56 57 56 56 54 55 53 46 45 45 55 65 73 74 79 87 95 99 100 98 97 95 96 94
96 96 84 87 89 95 94 90 96 98 96 95 99 94 98 100 100 99 99 96 97 59 42 43 44 49 51 46 50 46 45 42 39 39 42 48 47 48 56 60 70 79 84 79 86 98 100 100 96 96 96 95 97 92
85 84 78 88 95 96 96 98 95 98 99 92 96 98 97 99 99 100 100 89 51 41 42 40 45 46 46 44 32 32 33 35 38 42 49 58 64 60 68 72 70 74 87 93 96 97 96 96 100 95 96 96 95 94
94 95 94 97 96 96 98 99 98 99 99 99 100 98 99 95 100 100 99 70 47 44 44 43 44 46 44 34 36 38 38 42 54 64 64 76 73 69 62 65 73 79 88 98 99 98 96 96 95 96 96 96 95 95
96 96 95 91 98 93 93 100 99 96 95 99 97 95 94 100 100 94 88 70 62 52 45 40 39 39 41 43 45 51 59 68 74 76 72 71 72 74 75 82 84 82 93 98 98 96 95 94 95 95 94 93 95 98
96 98 94 93 86 87 91 86 84 92 96 95 98 100 97 100 96 80 66 57 51 49 51 52 50 50 52 57 66 71 77 81 77 72 66 65 69 76 87 94 97 96 96 94 96 98 98 97 97 96 95 93 97 97
88 94 96 96 93 90 93 95 95 95 95 92 85 100 98 87 88 63 58 61 61 59 60 63 66 68 76 81 84 83 78 72 67 62 61 63 67 80 92 99 97 96 98 97 97 97 98 98 97 97 99 98 97 96
91 92 89 97 94 91 83 88 88 81 75 78 90 93 83 73 63 61 64 67 71 73 78 82 87 94 95 95 94 89 73 66 64 65 68 68 70 78 88 93 95 97 97 93 91 97 100 100 99 100 98 99 99 98
96 90 92 94 95 95 81 74 72 69 75 78 76 68 65 66 69 78 82 86 84 86 92 94 94 94 92 89 77 67 70 70 79 93 93 87 88 85 89 95 95 93 92 94 98 99 97 95 95 94 94 93 94 94
93 92 82 87 88 77 69 66 69 70 71 72 72 72 79 82 93 96 93 89 87 88 92 94 95 94 82 76 74 70 66 76 89 95 96 94 93 93 94 94 94 94 96 100 100 99 98 97 97 95 94 94 95 95
100 99 91 94 83 86 84 86 87 87 88 86 87 89 94 94 95 95 95 94 91 90 89 88 86 82 85 80 80 84 86 87 90 92 92 90 91 94 94 93 94 96 97 98 98 99 99 97 97 98 98 97 96 96
99 100 99 96 92 90 89 87 86 88 90 90 91 91 93 96 97 98 96 92 90 88 87 89 92 86 82 81 84 87 92 93 94 94 94 96 97 99 100 98 94 95 96 96 97 97 96 96 96 96 96 96 96 96

GFSWCAN_850_rhum_177.txt.gz
RH
69 72 100 100 99 90 90 92 92 96 96 95 94 92 80 84 82 76 73 65 53 52 60 46 50 52 50 53 67 59 62 66 74 76 78 72 69 61 58 60 75 77 89 89 83 87 86 44 45 52 52 50 52 58
45 54 97 96 100 89 90 92 90 89 92 94 93 92 87 90 97 88 84 75 67 69 76 66 52 51 53 54 54 56 59 60 59 78 79 76 72 71 67 66 48 60 62 70 68 68 47 44 45 41 43 48 60 61
36 50 100 100 100 90 94 94 92 95 98 93 90 96 97 95 100 83 91 83 80 77 75 77 68 64 63 63 60 60 64 59 59 62 72 82 74 74 77 78 56 48 50 57 51 46 49 47 49 50 55 64 70 69
93 98 100 100 94 93 100 100 97 100 95 86 89 93 96 95 85 90 86 89 85 85 93 92 87 82 74 68 69 69 68 69 69 68 73 87 87 69 81 73 73 60 56 60 66 55 44 47 64 65 69 70 69 66
100 100 100 100 98 100 100 100 100 99 85 86 95 93 89 88 80 99 95 100 94 82 94 94 92 83 76 74 72 76 78 76 76 80 90 95 86 83 87 90 94 58 60 65 62 50 56 60 64 67 68 71 79 79
100 100 100 100 100 100 100 100 100 96 93 90 83 72 64 56 67 98 99 99 100 97 98 100 100 93 88 86 81 77 80 92 88 88 92 82 77 69 98 94 65 50 53 55 60 56 58 62 66 66 70 65 55 62
99 100 100 100 100 100 100 98 98 90 66 56 50 59 57 59 73 96 97 98 100 100 97 100 100 100 100 97 98 99 99 98 94 95 98 91 86 79 99 90 57 54 53 52 57 64 66 65 66 64 65 58 56 48
99 99 99 99 99 99 99 99 99 99 99 96 95 97 87 87 99 97 99 99 100 100 99 100 100 87 100 100 99 100 100 100 100 100 100 98 99 96 98 74 60 63 62 65 66 65 65 60 57 63 55 39 25 17
99 99 99 99 99 99 99 99 100 100 99 99 100 100 100 100 100 98 99 99 98 100 100 100 95 97 95 92 90 92 94 99 96 98 99 99 97 98 79 74 60 62 60 58 58 56 55 48 59 52 28 18 18 17
98 98 98 98 99 99 98 99 99 100 100 100 100 100 99 100 100 98 100 100 100 100 100 99 80 95 87 85 88 82 79 87 100 87 89 98 92 62 60 59 52 43 41 56 62 66 58 65 44 24 22 25 35 43
97 98 98 99 97 98 97 93 95 96 94 97 98 98 99 99 99 99 98 98 98 98 98 99 94 94 90 95 97 90 96 95 95 83 87 93 92 64 44 40 33 35 39 49 61 63 46 43 30 32 35 42 42 37
94 96 97 98 98 92 89 90 81 69 70 68 66 92 91 85 80 89 97 82 90 92 91 86 96 95 95 92 91 91 93 91 94 82 94 97 72 48 46 35 30 47 52 63 69 70 65 55 42 41 38 32 33 36
53 69 84 94 96 98 96 93 78 60 66 58 54 63 77 86 89 80 85 96 96 79 89 89 95 80 78 82 90 91 94 94 78 96 88 82 52 49 32 27 41 56 62 55 49 43 41 38 32 30 38 40 44 45
48 45 75 57 63 87 96 96 91 63 48 44 55 76 83 95 90 86 82 88 87 79 82 78 87 83 86 88 89 90 91 89 99 100 92 87 51 27 33 32 31 44 54 52 44 34 31 33 38 37 39 42 45 48
62 50 41 46 71 87 89 98 98 70 47 48 50 78 96 89 92 90 83 88 89 78 82 87 85 73 91 97 90 92 96 100 89 85 78 53 41 26 26 24 24 26 32 36 38 40 39 37 35 32 29 35 41 43
64 48 46 50 37 49 82 95 98 98 96 68 61 81 87 80 92 80 78 94 87 83 75 73 86 94 98 94 93 98 94 95 80 81 44 39 33 27 26 28 33 39 45 47 38 35 37 41 45 50 50 50 51 56
72 62 53 63 51 51 61 90 93 96 96 96 97 85 67 71 71 71 81 90 83 65 97 86 93 89 90 99 98 92 93 84 49 45 43 37 38 43 40 40 44 50 51 38 37 40 47 53 60 64 64 56 61 64
64 59 56 53 51 54 59 73 89 90 96 97 93 86 74 54 73 66 60 75 81 71 72 88 82 90 93 95 95 81 55 31 34 36 39 45 50 50 49 51 53 56 50 41 43 46 55 62 68 71 71 72 78 81
56 62 55 58 55 41 59 78 86 96 100 95 92 81 77 67 60 61 57 74 63 63 64 79 93 96 90 70 51 29 30 33 37 48 54 55 54 54 56 56 57 54 46 46 48 56 67 73 74 76 81 88 93 96
76 85 74 58 45 53 66 81 88 99 92 99 98 98 96 98 83 73 80 83 78 75 90 99 92 65 48 26 30 35 44 51 58 59 55 51 54 56 53 53 49 50 51 50 59 68 74 72 74 87 96 100 100 97
95 91 80 71 66 62 75 88 98 100 100 96 100 99 98 97 98 97 92 97 91 94 94 73 36 29 33 41 46 49 53 55 56 56 58 62 54 50 47 48 52 48 58 71 77 76 76 86 95 100 98 100 98 95
95 89 86 83 74 71 86 99 94 100 100 99 96 100 99 97 97 97 97 96 93 78 68 47 39 39 42 46 49 56 59 60 58 56 52 50 45 41 44 48 58 69 78 75 74 81 89 95 97 97 97 94 97 94
95 89 78 75 78 86 96 93 95 100 94 97 99 93 96 98 96 99 96 92 86 78 53 46 46 49 54 56 57 55 52 40 34 37 39 42 48 57 66 72 75 74 71 68 79 87 90 99 96 99 96 93 93 92
88 80 75 81 89 97 99 95 94 98 98 92 97 100 99 99 99 99 100 88 72 67 59 53 52 50 55 58 58 48 39 40 40 44 57 64 65 66 71 66 65 68 78 85 88 94 100 92 96 94 96 97 98 96
62 90 85 100 100 94 99 99 98 98 100 99 100 100 100 98 100 100 100 73 76 69 57 50 54 61 66 53 48 48 48 50 52 61 68 71 70 63 59 61 64 74 84 88 90 94 96 95 95 95 94 95 94 96
94 99 95 91 99 92 94 99 96 97 99 100 100 99 97 100 100 98 90 80 66 63 60 56 53 52 52 53 54 55 62 69 73 73 71 68 67 69 70 72 75 78 90 93 98 99 96 93 94 94 94 96 97 98
100 98 96 92 86 90 93 95 88 94 98 98 99 98 97 97 98 80 78 68 66 70 70 66 59 56 59 64 73 78 81 81 78 73 68 63 65 71 77 85 91 93 96 95 99 100 98 96 96 99 100 97 98 100
87 93 93 96 94 94 94 97 97 95 95 96 95 96 95 88 82 76 74 77 78 79 79 77 75 77 84 89 92 92 87 82 78 69 61 66 68 72 81 93 98 98 98 96 97 98 99 98 99 100 99 98 98 97
89 95 85 100 93 91 84 88 88 84 92 95 95 94 85 82 75 78 86 88 84 84 85 87 90 95 96 96 97 97 93 84 74 64 64 64 66 74 86 89 94 95 96 95 94 97 98 100 99 98 99 100 98 98
96 94 90 94 97 96 88 87 81 80 88 90 82 76 73 82 93 96 98 97 93 87 89 92 91 87 83 79 72 68 79 72 73 82 85 82 86 88 88 92 95 96 95 96 95 94 98 98 97 97 98 96 95 95
96 93 90 97 95 94 92 83 77 75 76 80 81 77 86 93 100 100 97 91 89 90 92 88 82 83 78 74 72 69 68 76 85 92 97 96 94 92 93 94 94 95 95 96 97 98 99 96 96 96 96 96 96 95
100 95 84 86 82 89 91 90 89 89 91 91 90 90 97 99 99 100 98 95 85 79 78 80 82 79 83 85 84 87 89 91 94 96 95 92 89 93 96 96 96 96 96 96 97 96 96 96 96 96 96 96 96 96
96 98 97 96 95 96 96 94 95 95 96 96 98 97 99 97 97 100 98 96 90 83 85 86 90 86 89 94 93 94 96 98 100 98 99 99 98 99 98 98 96 96 96 96 96 96 96 96 96 96 95 95 96 96

GFSWCAN_850_rhum_180.txt.gz
RH
96 98 90 74 72 74 72 99 100 99 96 89 96 100 100 93 87 88 76 68 54 46 46 46 47 47 52 50 65 62 58 66 74 72 74 74 74 62 59 59 73 74 86 87 87 87 81 43 45 50 48 49 51 56
93 89 85 85 83 78 66 88 100 99 99 90 95 96 99 100 95 95 91 77 68 59 64 58 53 50 50 46 49 55 55 64 58 78 84 81 76 78 71 68 58 62 60 66 68 68 50 44 46 44 45 46 54 58
88 96 95 90 97 64 53 65 99 98 100 95 92 95 98 96 100 98 94 84 81 76 70 75 70 62 54 55 54 53 62 56 59 60 71 78 71 75 78 79 58 51 52 59 52 49 54 47 46 47 49 51 55 62
98 98 95 94 62 36 40 53 99 100 99 96 93 95 99 98 99 99 99 90 83 77 83 90 86 75 67 64 63 63 60 62 61 63 72 86 83 69 80 74 70 57 58 61 66 57 55 59 58 56 56 60 66 70
96 99 99 82 76 40 31 48 99 100 99 96 95 94 98 99 100 100 100 94 88 74 92 98 96 90 82 77 72 75 73 69 74 81 89 92 84 87 91 90 91 64 63 70 73 56 56 56 60 67 66 66 66 71
99 98 100 91 99 65 32 65 100 100 99 97 99 98 98 100 100 100 100 100 100 92 92 100 99 96 92 88 82 83 85 90 92 95 96 89 78 71 96 94 66 60 52 55 61 60 60 59 62 63 66 70 73 72
98 97 100 98 98 99 99 100 100 97 100 100 98 97 98 100 99 99 97 98 91 100 96 100 100 100 100 100 100 100 100 99 98 98 98 89 88 81 99 97 62 53 52 55 58 59 65 66 65 64 69 73 72 54
98 99 99 100 100 100 100 100 99 100 100 100 100 100 96 94 97 100 98 99 100 100 98 99 100 99 100 100 99 100 100 100 100 100 100 99 96 97 99 82 70 63 60 56 52 51 60 67 64 66 74 69 52 32
98 98 98 99 100 99 100 100 100 100 100 99 99 100 100 100 100 100 99 100 100 97 99 100 94 98 100 100 100 100 100 99 100 99 100 95 99 97 84 78 68 66 59 52 46 57 67 68 62 57 63 52 31 23
98 98 98 99 98 99 99 100 100 100 100 100 100 100 99 100 100 100 100 99 100 100 100 99 87 98 93 93 99 93 98 96 98 93 94 98 93 72 68 53 45 38 39 44 44 59 66 64 56 64 55 42 36 34
98 98 99 97 98 98 97 96 99 100 100 100 99 98 99 100 100 99 98 99 98 98 99 99 89 96 94 97 97 98 96 93 94 86 90 94 94 67 48 42 33 41 47 51 52 69 70 59 50 47 43 42 36 31
97 96 98 99 97 95 94 96 93 94 98 99 97 98 98 98 97 95 97 96 96 94 98 97 99 98 99 98 97 96 93 89 94 85 91 97 71 53 51 30 42 56 60 66 72 74 74 71 60 45 34 30 32 36
66 95 95 97 98 98 87 83 95 96 94 95 96 96 97 96 96 94 95 96 97 96 97 98 97 97 98 96 94 91 93 92 79 96 89 83 56 51 33 40 46 49 53 50 45 40 34 34 36 39 37 35 33 29
48 63 80 92 94 96 97 86 88 87 72 61 81 95 96 95 94 84 80 88 88 86 90 80 91 88 84 90 89 89 92 86 100 100 93 89 54 34 35 26 23 23 26 32 34 34 36 39 34 30 28 30 40 44
62 44 41 61 80 94 93 97 85 63 49 46 51 93 94 97 100 96 95 90 91 84 72 80 83 78 95 96 90 92 95 100 87 86 81 54 40 29 27 29 29 29 36 40 46 46 35 35 36 37 39 44 50 55
55 49 70 61 49 77 86 99 97 90 93 67 76 86 90 86 91 88 97 98 85 72 61 67 92 94 100 94 96 97 90 92 80 87 49 44 38 34 39 37 36 37 43 48 52 43 36 36 38 40 44 52 57 66
73 52 74 58 49 54 59 72 80 91 96 96 97 77 71 81 79 87 91 88 76 49 95 88 83 87 92 96 96 91 90 83 44 41 44 40 39 42 42 45 46 48 51 54 54 42 41 44 44 47 57 59 68 70
68 53 68 49 53 55 53 78 76 85 96 96 96 85 65 76 77 87 86 84 71 63 69 81 83 91 94 95 96 81 59 45 38 35 36 39 44 47 51 52 50 51 53 52 51 49 48 48 51 64 75 75 80 83
62 63 57 50 37 37 49 71 87 97 100 98 96 89 94 71 66 63 72 86 67 53 53 67 87 94 88 67 50 34 31 32 34 40 48 52 53 52 52 52 54 54 56 56 54 50 50 59 70 76 80 88 94 94
71 68 53 48 38 44 61 83 99 95 95 99 95 96 98 95 86 74 80 87 75 66 72 95 84 53 42 30 29 33 39 44 51 56 56 53 52 56 55 56 54 56 58 54 50 55 70 70 72 85 95 100 99 95
78 78 69 51 49 48 78 100 100 100 99 99 100 100 95 97 96 96 97 91 80 88 96 67 39 38 39 40 41 43 47 54 58 60 61 61 48 40 36 38 42 46 53 64 73 68 67 78 85 89 95 98 96 97
84 89 75 62 61 67 95 99 94 100 100 100 98 100 96 96 98 96 99 96 94 69 66 52 40 42 46 48 51 54 60 59 58 57 52 40 34 36 44 57 66 71 71 65 66 73 80 85 94 98 98 96 100 90
89 85 69 67 68 78 99 100 93 99 92 98 97 93 95 96 94 99 97 94 85 79 74 66 55 62 61 59 61 67 62 55 47 38 38 41 51 62 68 71 70 64 63 62 74 82 84 89 91 91 93 90 88 90
90 70 72 81 79 97 99 98 100 98 95 91 97 100 100 98 100 98 100 90 82 82 76 74 70 65 64 63 67 64 52 46 45 49 52 56 65 68 66 64 63 64 69 77 83 85 88 87 89 90 91 96 96 97
64 92 77 100 99 91 100 100 100 99 100 100 100 100 99 99 100 100 100 81 89 70 82 85 77 76 72 68 63 54 52 55 55 56 67 69 71 67 63 59 57 65 73 80 83 89 90 91 92 93 95 98 98 98
98 100 93 96 100 89 98 100 100 96 99 100 100 100 100 100 100 99 92 90 74 73 72 71 69 62 58 59 61 62 64 68 72 73 74 74 69 64 62 61 61 65 80 91 94 94 94 93 94 94 95 95 99 100
100 100 97 91 86 89 95 96 96 95 100 96 96 97 99 99 98 85 88 82 77 81 78 73 69 69 72 76 80 82 83 85 87 83 78 69 68 70 71 74 78 81 88 93 95 97 96 95 97 97 97 96 100 100
83 92 95 98 94 95 95 99 99 100 95 95 94 96 96 94 94 90 88 91 89 89 87 86 86 91 92 92 90 88 87 87 86 81 71 71 74 75 78 85 90 93 98 99 97 95 98 99 100 100 100 98 95 96
92 95 85 100 95 95 89 90 90 90 97 95 95 96 95 94 87 86 92 95 92 88 96 100 97 94 90 86 82 80 76 73 70 66 63 64 63 69 77 82 85 91 94 93 94 97 98 100 100 100 96 98 96 95
100 98 91 97 96 96 91 91 95 92 95 96 95 87 86 98 100 100 97 94 95 98 97 94 93 88 80 73 69 70 73 72 74 80 80 77 80 82 84 87 90 92 94 95 94 93 96 96 96 96 96 96 95 95
100 96 94 96 97 97 96 96 96 94 83 85 87 81 88 98 100 99 97 95 90 88 88 88 83 81 78 77 78 76 77 84 90 95 97 94 92 89 91 91 93 94 93 94 95 96 96 96 96 96 96 95 96 96
100 96 89 85 84 89 92 93 92 91 92 92 90 92 100 100 100 98 96 97 96 84 78 78 81 76 76 79 90 95 94 93 94 96 94 90 88 89 89 90 93 97 98 98 97 96 96 96 96 96 96 96 95 96
99 98 96 96 96 97 97 93 97 97 98 98 99 98 97 96 96 97 97 98 95 85 77 80 80 77 78 81 89 97 98 98 99 99 99 97 97 100 100 100 97 96 96 96 96 96 96 96 96 96 96 95 96 96

GFSWCAN_850_rhum_186.txt.gz
RH
86 90 91 90 100 97 98 98 89 82 82 90 96 81 52 49 78 100 98 97 99 92 74 49 43 42 49 46 62 61 60 65 73 65 62 64 65 61 56 58 76 74 86 88 86 80 63 47 47 53 49 51 48 48
87 90 91 100 99 99 98 98 88 87 86 78 78 86 80 51 49 93 100 99 99 100 75 65 55 45 43 36 37 52 49 60 56 69 75 79 76 81 68 63 66 60 53 60 63 63 52 44 48 45 42 43 47 45
92 91 100 100 95 93 98 97 92 88 88 90 88 86 91 75 51 73 100 100 100 100 94 82 74 58 46 46 42 42 55 48 48 47 67 75 67 74 79 79 62 58 55 60 59 55 55 49 52 49 48 48 48 49
93 92 97 84 85 94 95 95 96 98 95 99 92 92 92 95 63 52 93 100 99 98 92 77 78 73 61 52 50 46 45 50 50 57 72 83 79 63 76 66 62 54 57 59 61 59 58 55 54 52 53 52 51 52
93 92 94 98 93 100 98 99 97 95 91 83 90 99 97 78 90 66 70 100 97 93 82 90 81 81 75 58 58 57 56 52 61 76 90 87 84 84 95 89 88 66 61 69 87 58 54 56 57 53 52 54 58 61
90 82 97 90 93 100 96 93 97 91 92 96 99 100 100 100 99 100 100 97 98 98 82 99 97 92 90 81 75 74 69 60 67 85 99 96 90 86 98 99 75 67 59 58 62 56 58 59 56 59 59 64 67 68
89 90 93 84 89 94 96 98 94 99 100 98 92 100 99 100 100 98 83 92 99 99 96 100 100 100 100 97 95 89 83 88 87 100 100 99 98 87 99 97 68 66 62 67 63 62 64 64 67 65 68 71 74 75
88 98 90 88 91 95 98 95 98 100 91 98 98 99 100 100 100 100 91 92 90 100 99 99 99 99 100 100 99 100 100 98 100 99 100 98 100 99 99 85 74 65 62 62 59 55 55 63 67 66 66 68 68 74
82 100 88 84 94 96 99 95 98 98 96 99 99 100 100 100 98 97 95 92 99 95 100 99 96 98 100 100 100 100 100 99 100 99 99 98 99 98 95 86 69 62 58 58 47 40 44 66 72 69 63 63 66 71
89 97 83 66 93 97 98 97 99 100 99 99 100 98 97 98 82 97 100 99 100 100 100 98 98 98 98 97 100 96 100 98 98 98 100 99 98 99 93 82 77 56 44 36 33 51 66 70 67 63 66 70 63 52
93 88 81 56 90 96 96 97 98 99 100 97 96 98 100 98 100 100 99 99 99 98 99 99 96 96 99 92 95 96 98 98 96 96 95 96 96 73 78 87 56 45 46 46 47 62 67 65 60 53 51 45 38 35
85 90 76 71 93 92 90 96 98 96 99 100 97 99 99 99 98 96 97 98 98 96 98 96 99 99 99 98 97 98 96 97 95 96 95 95 75 62 56 81 79 65 55 56 55 47 40 34 33 32 32 34 33 33
77 92 48 71 94 78 85 91 98 99 99 98 96 96 97 97 95 95 95 96 96 96 99 98 98 96 98 96 97 97 96 96 94 94 91 77 67 53 70 76 61 48 33 28 28 29 32 34 37 36 34 33 34 34
88 81 43 66 54 55 67 77 86 95 94 95 96 95 96 95 96 95 97 98 99 99 96 92 98 95 98 96 96 94 96 92 95 95 83 81 65 50 68 48 26 30 31 32 34 37 40 43 45 40 35 36 38 38
78 51 50 35 46 51 46 53 66 73 92 96 93 96 96 96 97 98 98 96 99 96 80 90 95 90 97 95 94 95 96 95 80 80 76 63 44 48 38 29 28 29 31 33 37 42 44 48 50 44 42 44 46 45
71 38 46 36 40 46 44 48 61 76 90 91 94 95 96 95 96 96 96 97 98 97 95 88 96 96 96 95 95 95 92 86 82 89 60 42 38 33 30 33 35 38 40 43 44 46 48 50 48 47 46 46 47 53
57 60 42 31 23 18 42 54 64 80 94 93 96 96 97 96 96 97 96 97 89 73 94 92 93 95 95 94 91 84 79 84 85 58 37 32 31 34 37 41 44 45 46 48 49 49 48 48 50 49 46 54 59 58
64 47 39 27 20 14 26 59 73 79 95 96 96 97 96 97 97 97 90 48 42 65 81 95 88 92 89 82 92 86 82 63 50 46 42 37 40 44 46 47 49 50 48 42 42 46 49 47 51 59 58 57 60 65
77 58 40 33 29 26 34 55 82 94 96 96 95 95 94 97 97 97 72 47 44 49 52 58 76 87 80 78 75 67 55 47 50 44 41 46 49 49 48 49 45 37 35 38 42 48 58 61 59 56 55 63 70 75
69 58 42 38 31 32 52 72 86 87 98 96 95 95 96 98 98 96 78 45 36 41 74 86 81 66 54 49 40 37 33 32 34 44 55 58 54 52 43 31 31 36 44 54 62 64 56 50 48 54 62 71 77 78
59 51 44 37 37 45 89 99 98 99 97 95 98 96 95 94 96 95 91 74 57 90 94 74 76 66 52 49 46 44 45 46 45 45 50 56 53 39 33 36 48 56 62 62 57 52 47 49 56 64 72 76 79 80
65 56 50 45 50 60 82 91 98 96 88 95 90 90 95 96 98 96 96 86 99 100 97 95 83 68 60 55 54 53 55 57 57 56 54 54 44 39 42 47 52 58 60 60 56 51 51 57 63 73 80 81 82 84
64 56 56 53 52 68 89 92 89 95 96 97 89 95 97 97 96 94 94 97 96 92 92 94 93 90 80 76 70 66 68 69 68 65 56 46 46 46 50 57 61 61 62 60 57 56 60 68 79 82 84 88 87 84
62 60 64 73 79 100 91 97 99 94 90 97 99 100 97 99 94 93 98 96 98 100 96 91 92 95 93 90 78 74 69 63 58 56 57 57 59 60 64 65 66 66 64 62 59 64 71 78 85 87 88 89 88 89
60 84 79 100 95 84 100 100 100 96 100 100 100 100 100 100 100 100 100 98 98 97 97 99 100 99 96 96 95 75 66 63 64 63 63 67 65 67 70 70 70 68 65 65 70 72 75 84 89 89 89 93 92 90
100 97 90 100 98 86 99 97 100 100 100 100 100 100 100 100 100 100 97 100 97 98 93 88 83 76 74 76 76 73 74 76 77 76 76 78 77 78 77 72 68 70 76 79 81 81 85 90 91 91 91 92 94 96
100 100 100 98 94 90 97 100 97 95 98 97 100 100 100 100 100 98 96 96 98 100 98 94 94 90 88 87 83 79 76 74 71 72 74 75 72 72 74 78 81 82 83 85 87 91 93 93 93 92 93 92 93 95
98 97 94 98 95 95 99 100 98 96 98 97 90 98 100 98 97 97 96 96 99 100 100 96 90 86 82 78 72 68 68 69 70 69 69 72 76 79 85 90 92 92 92 94 94 96 97 95 94 96 96 96 91 95
98 98 95 100 98 96 100 97 97 96 97 96 96 96 96 96 96 96 99 100 100 98 97 99 98 89 83 77 72 69 68 68 71 75 79 81 83 90 94 94 93 92 94 93 96 99 98 97 100 100 100 98 95 96
99 100 94 100 97 97 100 99 96 96 96 96 96 95 95 98 100 100 100 100 99 98 98 86 76 70 63 62 64 69 70 80 88 91 90 88 90 91 92 93 93 94 95 95 94 93 96 97 97 97 96 96 96 96
100 100 97 99 100 98 98 97 97 96 96 96 96 92 98 100 100 100 99 98 97 92 88 83 76 68 64 64 66 66 76 87 95 96 96 94 94 95 97 97 97 96 96 96 96 96 96 96 96 95 95 96 96 97
98 98 96 87 90 94 94 95 96 96 96 96 96 96 98 100 100 100 98 97 97 96 90 82 71 68 69 72 77 78 85 89 93 95 94 91 92 94 94 93 94 94 95 95 96 96 96 96 96 96 96 96 96 95
96 98 97 96 97 100 98 96 99 98 96 97 97 97 98 98 97 98 97 97 96 95 90 83 76 72 73 74 77 85 89 92 95 96 96 96 98 100 99 97 96 97 96 96 96 96 96 96 96 96 96 95 95 94

GFSWCAN_850_rhum_192.txt.gz
RH
94 94 94 90 89 88 88 87 85 87 94 100 96 96 90 89 92 95 98 87 100 99 96 96 91 93 59 50 44 54 63 67 66 59 50 46 43 41 43 47 62 60 63 62 57 60 59 41 44 41 43 54 53 53
96 94 91 90 90 85 83 82 83 86 89 93 91 94 100 99 96 89 100 99 100 100 96 95 98 97 98 92 48 58 47 62 55 56 57 47 50 52 40 41 58 51 41 44 42 42 41 43 43 43 44 52 52 49
77 90 96 92 85 83 86 88 89 90 89 91 98 100 100 100 99 100 97 99 100 100 97 97 91 45 60 89 97 74 56 47 53 46 56 52 54 48 53 49 49 50 48 43 46 47 49 48 52 47 46 46 50 51
61 84 90 89 86 86 86 88 92 93 93 96 99 100 97 93 89 97 100 99 100 99 97 71 58 61 53 56 84 90 74 52 47 47 58 66 59 52 51 46 49 46 48 46 50 58 58 57 55 54 52 50 50 53
73 93 89 86 84 86 86 87 85 70 67 80 82 68 71 79 80 88 94 98 99 100 96 78 77 72 59 77 100 97 84 80 63 68 75 71 68 65 72 61 56 51 48 49 49 46 46 52 59 57 59 59 58 65
88 89 82 87 90 90 86 70 65 66 68 79 71 78 87 86 94 100 99 99 89 99 99 96 82 77 58 62 90 98 98 91 71 61 66 76 66 66 85 70 51 50 46 44 57 53 52 68 71 77 77 75 82 73
88 89 91 89 89 87 73 60 64 64 77 69 75 88 92 93 100 99 96 82 74 99 98 97 93 64 66 56 86 97 100 90 93 72 73 70 83 79 87 69 63 67 58 56 55 65 92 91 94 96 81 71 71 70
86 90 87 84 86 73 61 62 63 72 74 60 73 80 72 71 87 100 89 99 100 100 98 96 88 91 73 84 95 99 100 100 99 83 91 83 99 95 97 69 68 71 74 77 78 76 79 89 88 84 76 74 79 80
89 92 93 90 80 85 65 64 78 78 62 71 78 70 63 86 100 100 93 98 100 99 97 97 84 81 90 77 92 100 100 99 100 97 97 86 98 96 79 76 78 82 77 86 84 82 86 78 75 78 78 82 72 66
79 78 88 77 60 64 60 86 94 73 74 79 71 92 97 96 99 99 99 100 98 98 100 98 68 69 95 99 98 98 100 98 98 99 100 99 96 84 92 79 77 81 78 83 83 88 80 78 74 70 63 63 60 56
90 91 77 56 66 56 69 97 90 79 79 94 90 86 74 83 99 99 99 98 99 98 99 79 72 67 88 86 90 100 98 99 97 96 96 98 95 86 91 80 78 79 83 73 62 54 58 59 66 65 64 54 44 38
80 71 57 67 58 67 90 92 88 95 100 100 98 98 99 98 97 97 96 98 92 90 96 84 69 49 98 98 97 97 95 98 95 95 95 94 75 94 88 82 84 72 58 53 47 57 64 61 54 46 41 35 32 32
78 61 66 62 58 80 82 84 93 92 80 92 98 98 89 85 94 92 93 94 95 94 98 88 96 90 97 93 98 97 96 95 85 93 84 72 91 100 100 85 86 92 56 58 60 57 48 38 32 30 31 33 34 35
70 65 63 60 51 41 32 90 43 70 98 97 97 94 94 90 89 88 90 89 85 99 95 88 89 93 98 94 95 92 94 89 92 96 90 80 96 100 99 98 93 78 61 46 33 30 31 32 36 37 37 37 38 39
70 68 62 50 44 34 42 32 49 88 98 96 96 94 93 93 97 97 98 98 99 98 99 93 86 85 96 94 92 93 94 92 77 75 74 91 100 99 99 94 71 44 34 32 32 33 36 39 42 43 42 40 39 39
73 69 62 58 42 36 33 32 75 92 96 96 93 92 83 88 89 91 96 97 97 97 98 96 96 94 94 93 91 91 86 85 80 84 87 100 99 99 88 52 34 33 34 35 38 39 42 43 41 39 40 41 42 44
75 63 63 54 39 35 29 60 84 94 96 95 94 96 97 97 95 96 97 96 96 96 95 96 95 94 94 94 93 87 79 86 86 86 98 98 96 88 48 38 38 36 37 42 44 46 40 38 40 40 43 47 41 37
70 69 58 49 44 33 40 63 91 91 95 95 95 96 96 96 96 96 97 97 96 96 97 95 96 93 94 93 92 91 89 81 78 90 95 89 71 42 36 36 40 44 46 48 40 38 39 38 41 47 44 40 39 43
73 65 57 52 42 37 52 74 91 96 96 96 95 96 95 93 94 92 94 94 95 96 94 95 93 95 94 93 89 82 76 79 77 77 76 62 38 38 43 47 49 48 38 37 38 38 43 50 48 44 41 40 42 54
61 54 50 41 36 36 50 78 91 95 94 95 95 95 96 93 87 81 88 86 83 86 91 94 94 95 95 97 94 91 79 61 57 68 65 57 53 50 50 47 38 36 36 42 47 50 51 51 48 47 46 47 55 67
48 51 41 36 38 43 60 80 88 87 85 95 96 96 92 77 80 81 80 68 73 96 94 96 97 99 71 64 58 46 50 44 56 49 60 67 63 52 44 40 41 45 43 46 48 51 54 53 52 52 53 61 70 76
59 52 45 37 38 48 66 77 80 74 72 72 80 93 96 94 98 97 85 87 95 98 98 100 100 92 61 64 63 52 52 45 49 51 54 55 54 43 44 46 46 45 49 53 57 58 59 59 59 59 61 68 76 80
56 50 44 41 40 47 65 70 72 78 83 86 74 87 94 95 96 74 96 96 97 96 98 100 94 87 80 81 71 67 62 58 62 64 61 52 48 54 53 54 55 54 56 60 62 64 65 65 64 64 69 78 83 85
47 45 48 61 66 92 66 74 80 82 78 90 93 89 92 97 88 88 93 95 96 96 96 96 93 77 71 67 68 68 66 59 56 57 61 56 54 59 60 58 59 62 66 68 69 71 74 72 71 73 79 86 90 91
46 71 70 98 84 80 97 92 95 92 100 100 96 95 95 96 93 94 92 95 96 96 96 96 96 92 91 90 86 84 79 71 65 57 68 69 66 65 68 73 74 74 75 75 76 76 75 74 75 79 86 91 94 95
100 100 98 100 98 87 98 98 100 100 100 100 100 99 95 90 89 95 92 97 96 96 96 95 96 93 87 83 80 75 74 74 77 74 74 76 77 76 77 79 79 79 82 80 78 76 77 80 83 88 91 94 99 100
100 100 100 100 100 97 95 97 97 93 100 100 100 97 91 98 97 92 96 96 96 96 96 95 87 77 74 73 70 67 66 65 64 65 67 69 71 74 80 84 87 88 87 85 85 88 88 89 91 94 94 95 98 96
100 100 100 98 95 98 98 95 98 97 96 98 92 99 99 95 94 98 97 96 97 97 95 77 71 66 63 60 59 60 62 65 70 73 77 79 81 83 86 90 91 92 92 92 92 94 94 94 95 96 96 95 95 96
98 98 99 98 97 95 99 96 95 96 97 98 94 94 98 100 100 99 99 97 97 98 94 74 68 66 63 62 61 61 66 72 77 81 83 86 90 92 93 94 95 99 98 98 100 99 98 98 99 99 96 96 96 96
98 100 98 100 98 99 100 98 96 97 99 98 94 97 97 99 100 98 98 98 99 97 91 77 73 69 66 64 63 65 72 76 81 86 89 91 92 94 95 97 98 99 100 99 97 97 98 97 97 98 98 98 96 94
98 99 98 97 100 97 96 96 96 96 96 97 91 88 98 98 99 99 98 98 97 96 97 92 81 72 68 69 69 75 80 86 92 95 96 95 95 97 99 98 99 97 97 97 96 95 95 96 96 96 95 95 96 96
93 99 92 96 97 99 97 96 96 95 96 95 96 96 96 97 97 98 98 97 96 96 95 95 88 77 74 75 76 79 83 88 91 95 94 91 92 96 96 95 95 96 96 96 96 96 96 96 95 96 96 96 95 92
94 97 99 100 99 97 97 94 97 96 95 96 96 96 97 97 98 98 98 97 97 96 97 96 90 78 76 78 80 86 88 90 93 94 91 91 93 99 100 99 97 98 97 96 96 95 95 96 96 97 95 92 90 90

GFSWCAN_850_rhum_198.txt.gz
RH
90 94 93 98 94 94 92 90 95 91 87 83 80 82 83 86 85 82 77 79 98 99 96 91 62 75 87 88 87 71 78 69 76 92 72 62 53 38 37 44 79 76 75 78 66 72 68 39 43 42 40 37 34 33
94 93 94 89 86 91 82 96 82 75 78 81 84 86 86 81 85 82 97 76 82 100 98 91 83 79 99 91 83 77 80 77 99 100 84 75 52 43 35 40 50 60 51 60 50 53 40 36 38 32 34 38 39 37
61 72 92 90 92 88 82 84 90 85 86 88 91 90 88 86 88 92 94 84 91 100 88 88 85 49 58 65 72 88 72 77 76 76 97 99 96 59 52 38 38 47 38 49 43 46 44 37 39 35 35 31 34 37
20 38 92 90 86 85 89 88 88 88 90 89 88 88 87 88 84 92 94 74 96 99 96 74 63 62 64 68 72 78 80 78 74 74 86 93 90 68 74 54 43 30 48 47 52 53 46 39 39 38 41 40 42 46
94 94 94 86 84 87 85 86 88 88 90 91 88 91 91 88 87 88 86 78 83 100 96 93 80 58 68 67 72 73 78 87 88 88 96 92 68 87 93 81 73 42 49 51 51 43 43 39 40 41 44 48 47 46
94 91 90 91 92 89 90 99 99 93 90 88 85 91 92 81 80 100 99 78 55 66 99 96 60 70 57 66 59 62 74 79 80 80 79 90 78 67 78 91 60 46 36 34 43 37 39 37 40 45 48 54 54 54
86 88 90 99 98 92 89 80 81 82 83 82 81 77 73 72 94 100 96 72 60 81 96 90 86 78 67 68 78 78 66 62 66 70 77 76 74 89 98 92 58 48 42 37 40 40 53 48 54 54 54 59 61 61
79 92 86 77 78 78 79 80 82 86 92 92 88 82 85 84 77 85 25 40 79 100 99 94 76 60 51 61 78 73 76 77 75 72 65 68 62 67 84 56 45 74 57 47 44 42 42 46 59 63 63 68 69 72
88 82 77 78 83 88 89 89 87 80 89 88 88 85 77 47 72 66 74 95 99 98 98 97 91 86 54 57 64 84 73 89 82 85 79 70 72 82 62 47 38 62 65 55 50 51 59 57 72 73 72 75 71 78
82 71 76 79 69 84 94 88 70 85 84 85 81 73 84 34 53 71 73 69 65 73 97 90 67 77 64 66 78 97 98 95 97 91 69 90 84 56 50 44 57 59 56 53 75 81 79 85 84 83 79 76 72 75
83 79 84 82 78 78 80 74 88 83 86 79 76 71 66 80 96 97 96 99 98 98 98 88 77 85 97 97 94 94 97 98 97 81 82 88 73 58 54 51 45 62 58 58 50 45 52 59 83 85 79 74 73 74
72 87 88 78 75 88 86 85 79 86 90 99 99 88 96 97 98 98 96 97 99 98 97 99 99 95 96 98 99 99 97 98 95 86 96 91 53 39 48 51 50 56 56 55 62 61 75 82 84 80 76 74 69 57
88 84 80 62 77 84 76 82 69 93 98 97 67 100 100 85 96 96 95 94 90 85 86 82 91 99 99 99 99 99 98 94 96 99 91 70 89 84 45 54 63 63 67 75 83 81 85 84 79 74 69 58 46 35
91 87 80 56 54 62 82 69 68 100 99 90 96 95 96 95 96 95 93 90 82 84 88 87 95 98 99 98 98 97 96 97 100 95 63 87 91 77 84 77 80 84 84 84 84 80 75 82 80 59 50 36 27 27
92 80 74 52 56 80 76 69 81 66 86 100 97 94 96 80 83 81 88 92 96 96 96 94 94 98 98 97 98 96 99 96 93 90 97 96 93 98 98 96 88 87 83 90 97 97 97 83 43 34 31 29 27 25
88 78 63 64 82 84 75 64 50 70 100 98 97 97 88 87 78 78 87 90 90 97 94 98 96 97 97 97 97 95 94 94 95 98 99 99 97 96 98 97 97 97 97 96 95 82 42 29 28 31 32 29 31 34
95 98 76 86 79 75 62 54 76 98 97 96 96 85 97 96 94 97 96 97 96 97 96 97 96 96 97 97 97 97 97 96 98 98 98 98 97 98 98 97 96 96 96 89 48 30 30 30 33 32 33 41 41 37
85 73 83 81 71 65 56 71 92 99 96 96 98 92 97 96 97 93 97 92 98 96 97 96 96 95 96 97 95 96 97 98 98 98 98 97 96 96 97 96 82 50 45 51 50 43 41 37 36 42 44 42 39 39
74 78 74 63 66 63 53 93 96 96 96 96 93 94 95 95 94 94 96 96 96 96 94 94 94 95 94 96 95 96 97 97 97 98 97 97 96 95 95 93 86 62 49 46 41 41 42 41 44 44 42 42 41 45
74 72 59 67 52 49 70 94 95 96 96 94 96 93 96 96 96 96 97 96 96 93 93 94 95 95 96 97 98 98 96 96 96 96 97 96 96 89 67 53 53 48 44 44 47 48 48 47 48 48 49 50 50 51
76 62 68 55 49 48 55 75 95 94 93 96 96 95 96 93 93 94 92 73 71 96 95 96 97 96 97 97 97 97 97 94 96 93 94 93 88 54 54 50 45 48 50 52 50 53 51 52 55 55 54 54 55 56
80 75 63 51 45 49 55 60 72 74 80 95 94 95 95 95 96 95 86 86 96 96 97 96 96 98 93 95 97 95 96 89 90 91 85 72 52 52 57 56 46 51 54 57 55 55 58 60 60 60 59 58 59 61
68 53 50 45 45 47 58 64 77 70 90 89 95 95 95 95 88 70 94 96 96 97 97 97 97 96 93 87 75 76 75 69 64 67 64 63 64 62 57 56 57 54 56 64 64 63 64 67 66 64 64 63 63 66
52 47 47 52 61 66 62 70 72 78 76 91 95 94 95 95 76 82 96 96 97 96 95 96 90 87 76 66 72 74 71 70 67 65 66 60 57 62 61 62 63 65 70 75 74 73 72 70 69 67 66 68 70 74
50 67 69 89 79 80 93 92 92 91 96 95 95 95 95 94 95 95 95 95 96 96 96 96 96 85 80 82 84 82 74 64 68 64 70 69 73 73 74 76 77 79 82 80 76 75 73 72 71 71 72 74 78 80
96 94 96 99 96 91 99 97 100 100 98 96 98 95 91 91 91 97 94 96 97 96 95 87 81 75 71 69 64 60 64 64 64 58 69 72 74 74 78 76 78 76 77 76 75 75 76 78 80 81 84 88 92 94
97 98 99 97 95 94 95 91 89 93 100 100 99 93 89 95 97 95 97 96 96 97 91 81 75 74 76 75 75 75 74 71 70 73 79 81 80 80 79 78 78 83 85 85 85 84 85 87 90 92 92 95 99 99
100 98 100 97 92 96 97 97 98 99 98 94 93 100 100 99 96 98 97 97 97 96 83 77 74 71 70 71 71 71 71 74 78 82 84 86 86 88 88 90 91 91 89 88 89 90 90 91 94 95 95 95 95 96
96 96 99 97 93 93 97 97 97 97 100 99 97 100 99 100 100 98 97 97 97 87 78 75 74 72 68 67 68 68 68 69 72 76 81 85 85 86 89 91 92 93 92 92 94 94 94 100 100 100 95 96 95 94
97 99 97 94 96 99 98 96 98 100 99 100 97 98 98 100 100 99 99 99 98 94 94 91 82 73 68 66 65 67 69 73 78 82 84 88 90 91 93 93 94 95 93 92 92 94 96 94 94 94 93 92 92 93
97 98 94 93 100 97 96 96 97 96 90 89 85 90 98 97 99 98 97 96 96 96 97 94 88 82 75 70 69 71 74 79 84 88 89 90 92 94 95 95 96 95 94 93 94 94 93 93 92 91 92 94 94 92
93 95 93 99 99 98 96 96 96 95 96 94 98 96 98 99 99 98 99 98 97 96 92 92 88 84 82 77 73 76 82 85 87 89 88 87 89 93 95 95 95 93 95 95 94 94 94 94 93 94 94 92 92 92
94 95 98 96 96 96 97 92 96 96 95 97 98 98 98 98 99 99 98 98 97 96 95 91 87 84 82 79 79 82 85 88 90 90 90 89 90 98 99 96 92 95 95 94 95 95 94 94 94 93 93 94 94 94

GFSWCAN_850_rhum_204.txt.gz
RH
42 53 70 72 90 85 93 97 96 93 94 95 90 93 93 90 88 94 90 74 97 99 89 85 86 96 95 92 92 92 90 77 72 84 90 81 76 80 92 77 86 66 76 96 82 77 81 36 42 44 36 30 32 32
80 86 90 88 88 90 91 92 92 94 92 88 88 86 87 87 87 90 97 70 86 100 96 84 59 53 58 67 95 85 85 78 66 79 88 94 83 80 87 89 66 87 67 56 61 67 42 40 32 28 31 33 31 32
90 99 96 94 94 99 98 98 100 92 90 93 92 92 95 94 87 84 97 81 88 99 88 81 79 41 47 53 51 98 83 93 89 80 82 90 92 70 86 77 64 74 92 95 96 70 56 53 55 52 42 32 31 31
100 99 100 98 94 93 92 94 90 90 92 99 100 99 99 95 91 90 98 72 100 98 96 71 49 58 44 52 62 76 74 73 79 81 94 90 92 71 82 69 62 54 47 51 60 53 60 61 53 50 71 61 39 34
100 100 98 100 93 93 89 90 86 84 78 81 81 83 80 76 74 80 85 74 73 99 87 69 60 59 64 69 66 68 71 90 95 91 91 87 70 76 70 69 85 57 54 58 56 33 40 46 41 69 70 66 52 37
98 100 98 98 97 90 95 84 72 80 84 89 90 90 91 91 89 95 94 66 50 68 98 93 63 68 63 60 61 62 72 79 85 89 84 82 72 71 79 84 51 51 50 47 49 47 49 50 65 66 70 50 65 51
92 88 91 93 90 91 90 83 76 76 89 91 93 88 77 80 91 98 89 60 72 87 97 92 85 59 51 47 52 65 75 87 83 86 88 86 77 79 92 92 55 52 48 47 46 50 64 60 53 49 48 51 67 59
83 84 82 96 93 95 90 88 88 90 93 92 85 91 82 63 59 82 40 55 84 100 97 96 80 72 51 52 64 60 74 83 90 87 82 78 78 77 93 65 57 54 54 50 48 46 46 49 46 47 70 54 70 62
85 80 95 77 78 88 85 92 88 91 86 87 89 64 48 43 55 43 58 63 95 96 88 86 94 79 71 76 88 80 67 96 86 92 82 74 86 94 70 58 51 49 50 49 49 50 50 51 50 50 75 69 80 68
78 84 74 61 83 83 76 92 88 85 88 88 70 71 60 43 60 66 80 83 84 80 93 89 80 92 74 87 92 96 98 95 97 87 67 91 87 58 53 50 47 45 45 46 49 50 50 50 50 66 68 60 82 79
83 64 49 78 78 74 84 92 89 82 80 86 87 70 65 71 90 93 95 99 90 96 96 96 94 94 84 94 92 97 96 96 97 91 92 97 85 57 56 57 55 54 52 52 50 47 47 46 48 64 77 66 83 99
55 77 70 54 64 76 74 71 71 86 92 96 97 91 98 95 88 97 96 93 97 96 94 96 96 83 75 81 98 98 96 96 95 94 97 97 58 65 65 62 57 53 51 52 55 56 52 48 45 53 77 88 90 84
72 68 75 74 71 70 68 74 80 84 92 95 93 82 92 82 90 100 94 94 96 85 88 94 88 79 76 84 98 98 97 95 95 98 87 85 86 86 90 86 77 73 72 69 58 56 56 54 51 64 86 89 92 92
51 55 74 73 73 74 69 67 77 90 92 96 81 89 94 97 98 96 98 97 90 87 97 95 89 94 88 100 93 100 92 97 96 96 95 91 91 99 100 98 99 91 74 83 98 61 58 60 77 91 86 84 95 96
78 84 74 75 68 68 72 80 88 97 96 81 90 89 97 75 90 86 74 82 85 94 93 94 98 97 97 98 95 97 95 96 94 94 92 94 97 99 97 100 97 95 96 92 95 98 78 84 91 97 100 98 97 97
91 96 79 79 76 85 84 90 90 90 70 92 85 88 83 96 86 77 78 93 83 90 95 98 96 99 95 96 96 95 94 95 93 94 96 97 97 96 96 97 97 97 98 98 96 95 100 100 97 96 97 97 91 47
85 86 86 79 73 78 88 85 80 82 100 96 96 98 97 95 92 97 90 85 92 97 96 96 96 96 96 95 95 95 95 94 95 96 97 96 97 96 96 96 96 98 97 97 96 98 97 97 96 97 74 48 39 36
92 83 89 87 86 91 79 71 67 100 93 92 97 95 95 92 95 93 96 92 97 95 96 96 95 94 95 95 93 93 96 95 96 96 96 96 96 96 96 96 96 97 97 96 95 95 92 78 66 53 42 37 33 38
92 93 96 81 94 87 68 70 86 98 90 96 96 96 96 96 95 94 94 95 97 96 96 94 94 96 94 94 94 96 96 95 96 96 96 96 96 96 96 96 96 95 95 92 90 88 79 61 54 44 42 43 42 48
93 92 80 89 88 68 55 73 91 97 94 95 95 94 97 96 93 96 96 96 95 94 92 95 96 96 96 96 97 97 96 96 96 96 96 94 89 78 73 66 75 64 62 59 72 55 53 56 59 56 51 50 48 54
100 100 90 95 79 62 57 75 93 97 95 95 95 96 96 93 94 94 90 79 76 94 95 95 97 96 96 96 96 96 96 90 94 99 99 87 76 67 63 64 57 52 52 57 56 59 55 60 62 59 55 56 58 60
97 92 94 80 61 57 61 61 63 73 85 95 95 96 95 94 94 91 72 86 96 96 97 97 97 96 96 96 96 94 90 78 83 85 76 67 61 59 60 63 58 59 63 67 66 68 71 72 68 65 62 64 64 63
69 73 64 58 54 56 60 62 72 72 87 93 95 95 95 95 81 69 92 95 97 97 97 96 96 97 96 96 86 74 69 68 64 67 72 71 72 72 70 70 70 71 72 75 73 70 69 71 69 66 66 66 67 67
68 59 54 55 66 63 71 77 81 76 78 93 95 95 95 95 77 79 98 96 96 96 96 96 96 88 75 68 72 80 77 76 76 74 75 74 72 76 76 75 74 76 79 80 76 74 73 72 75 74 74 76 77 81
61 62 70 79 85 78 100 98 98 92 97 97 96 95 95 95 95 96 97 94 94 96 96 96 95 95 90 89 83 79 79 74 76 78 82 83 83 80 76 76 77 79 84 80 78 81 82 85 85 85 86 83 84 86
78 86 82 100 96 88 99 98 100 100 99 98 98 96 95 95 94 98 96 96 96 96 95 92 84 82 81 81 84 82 83 82 79 74 82 84 84 84 84 80 79 84 87 91 92 90 91 93 94 93 93 93 94 93
92 96 98 100 98 100 97 97 95 93 100 100 100 95 95 96 97 96 97 96 95 96 94 83 80 79 80 80 82 85 88 88 82 86 91 89 86 87 88 87 88 94 96 96 96 97 96 96 95 97 98 94 91 91
92 95 98 97 96 97 99 99 100 100 100 99 92 99 96 95 97 98 96 96 96 96 93 79 77 76 74 72 72 74 79 83 85 88 90 91 93 96 98 99 100 100 98 96 95 98 97 94 94 95 92 92 91 91
96 97 99 99 95 92 97 96 98 99 100 100 95 100 100 100 100 98 97 97 96 96 93 86 76 73 73 73 74 75 77 78 83 88 87 89 93 96 99 100 100 100 97 96 95 97 98 92 90 92 90 89 89 89
98 97 95 96 95 98 97 96 99 98 99 96 92 98 100 100 99 97 96 96 96 96 94 92 90 85 80 76 77 78 79 80 82 82 82 86 90 93 95 95 94 93 94 95 95 93 92 92 92 91 91 90 88 88
98 98 94 95 99 98 96 96 97 96 96 93 90 88 97 98 100 99 99 98 98 98 99 98 93 87 86 82 78 80 82 84 86 86 87 88 90 92 93 94 94 94 94 94 93 93 94 93 92 89 88 88 87 86
97 96 90 100 99 98 97 97 97 95 94 94 98 97 98 98 96 97 99 98 97 97 95 90 83 78 80 79 77 75 76 78 79 81 81 82 84 88 94 96 96 97 96 97 97 97 95 92 89 89 89 88 87 89
98 96 99 98 98 98 97 96 96 96 96 97 98 98 97 96 95 96 97 97 93 93 92 88 81 74 73 75 77 79 82 83 84 84 83 84 85 95 100 100 98 98 98 98 98 95 92 89 89 88 89 90 91 92

GFSWCAN_850_rhum_210.txt.gz
RH
47 79 86 94 87 98 100 95 98 98 99 99 95 97 95 89 96 98 94 100 100 98 94 91 86 93 96 96 92 73 84 69 90 97 95 78 90 73 86 73 82 88 82 79 78 78 73 68 68 90 96 89 82 63
87 82 92 99 100 97 98 98 99 96 99 99 90 88 87 82 84 87 98 86 99 100 95 94 95 93 95 85 89 90 84 81 71 99 96 98 84 84 66 76 47 72 61 77 64 58 42 40 48 70 82 94 84 79
86 88 99 100 100 98 99 96 100 100 98 92 96 88 67 88 91 93 100 96 100 98 84 88 91 48 59 65 60 98 86 89 87 77 78 86 91 72 90 78 61 58 50 63 65 50 44 49 60 54 43 66 58 66
92 100 100 99 98 99 99 92 98 96 94 97 87 78 84 86 59 68 87 72 100 94 94 69 65 60 52 56 59 66 67 72 76 75 86 93 92 67 81 72 70 57 57 64 64 51 47 40 36 34 43 46 45 52
92 88 98 95 96 95 94 91 89 94 98 97 90 78 63 77 82 92 91 59 65 99 86 76 81 45 50 45 49 62 74 80 100 93 94 91 77 79 74 69 81 61 64 70 66 42 42 42 41 41 43 46 49 56
80 84 84 86 80 83 88 90 86 85 95 88 89 89 90 93 94 95 87 49 49 76 98 95 56 64 52 50 62 63 66 79 94 94 88 87 80 76 93 85 52 49 48 49 52 48 48 48 48 47 49 48 49 57
77 76 71 58 60 83 87 80 84 81 79 85 87 92 89 90 95 100 84 60 68 95 97 96 95 68 53 50 48 48 48 64 82 95 92 84 79 80 93 92 53 47 47 50 50 51 52 52 52 49 47 48 50 52
74 82 84 64 58 68 73 79 72 77 81 80 86 89 76 66 74 63 38 49 62 92 85 100 94 62 45 46 55 55 63 66 78 89 84 86 85 96 95 61 53 65 81 66 55 55 56 57 54 54 51 50 50 53
73 68 57 66 68 77 84 54 77 80 80 83 74 66 48 38 47 50 60 69 79 90 97 97 96 88 63 61 67 66 73 98 72 96 94 88 91 93 78 96 95 96 97 97 95 68 58 61 58 57 57 56 55 58
60 70 71 73 74 55 68 67 71 78 76 79 63 48 48 57 59 61 69 81 88 97 98 97 96 95 72 76 85 91 81 96 98 88 83 97 87 91 80 72 77 81 82 89 97 90 82 60 58 56 56 55 56 53
72 75 79 48 62 73 69 69 72 90 92 94 84 68 59 72 92 90 91 99 87 96 93 96 96 97 72 94 82 74 96 97 96 86 95 96 96 74 74 81 87 91 92 91 90 84 85 91 78 59 55 53 52 53
73 77 68 69 70 64 81 90 90 90 97 96 96 94 98 99 87 93 100 91 97 97 96 98 88 91 72 67 98 87 96 95 95 84 97 96 85 75 84 91 95 99 99 98 95 95 72 70 73 82 67 59 55 52
74 70 67 69 74 90 90 92 91 86 83 87 93 98 95 82 98 99 100 93 100 92 93 94 94 74 73 79 100 100 99 94 93 96 95 88 68 86 94 97 99 96 96 100 100 98 82 70 68 80 78 63 57 54
68 54 68 65 78 79 78 78 73 85 83 99 98 93 90 90 99 91 92 96 84 85 92 94 91 80 75 100 96 97 85 96 94 93 88 71 89 97 99 100 100 96 97 97 96 96 92 90 90 83 67 66 71 90
61 72 68 75 74 73 73 72 70 74 92 97 95 96 97 63 66 75 84 94 96 95 93 92 94 100 96 96 95 95 92 94 90 92 90 94 98 98 97 97 97 98 98 98 98 99 100 100 94 85 91 99 100 99
75 73 57 56 80 85 80 76 79 99 96 96 99 99 86 93 82 85 96 95 92 93 87 93 97 96 94 96 95 96 94 96 92 94 96 97 97 96 97 97 97 97 98 97 97 96 97 100 100 100 98 100 98 100
55 75 83 83 90 92 75 85 100 100 100 95 94 90 92 96 96 96 96 95 96 97 97 95 96 95 95 95 95 94 95 94 96 97 96 96 96 96 96 96 96 96 96 96 96 96 96 96 96 97 96 97 97 95
82 80 87 86 97 100 84 96 98 87 98 89 92 88 96 95 92 96 96 96 96 95 95 96 95 95 96 96 94 92 94 97 96 95 96 96 91 93 95 96 96 96 96 96 96 96 95 96 96 96 95 95 96 95
92 96 95 100 94 96 86 82 75 90 89 92 97 96 96 94 92 97 95 95 96 96 96 95 94 97 95 95 94 96 96 97 96 96 83 77 73 73 72 68 73 82 92 95 94 95 96 95 96 96 96 90 89 89
94 99 100 100 100 99 80 67 72 94 99 94 94 96 96 95 94 93 94 95 94 94 93 95 95 96 96 96 96 96 97 96 94 77 77 71 71 69 71 72 74 73 70 68 72 75 74 73 78 83 83 83 82 84
93 100 100 100 100 98 83 64 79 98 96 95 96 96 96 96 94 86 88 89 85 96 96 96 96 96 97 96 96 96 96 95 90 88 89 79 74 72 71 71 68 68 68 73 77 82 87 89 82 73 72 80 84 83
91 98 98 89 99 79 68 67 64 70 71 72 90 98 95 95 95 96 92 83 96 96 96 96 96 97 96 96 96 95 91 85 80 79 76 69 68 69 73 76 73 79 82 88 90 92 95 96 90 84 85 89 84 86
89 80 82 84 72 62 60 62 70 78 76 71 90 93 94 96 96 95 95 94 97 98 97 96 96 96 96 96 96 87 82 80 76 75 75 78 79 81 82 82 82 82 86 93 94 93 92 93 90 88 89 88 88 87
83 71 72 63 67 65 69 79 83 80 80 90 96 96 96 96 96 93 96 96 95 97 96 96 95 96 96 96 95 95 93 86 81 78 78 79 82 87 90 92 93 95 97 97 95 94 92 92 92 90 88 86 84 84
81 73 73 77 87 84 96 100 96 91 98 100 96 98 94 97 97 97 94 96 96 95 96 96 95 95 95 96 95 92 86 81 84 81 86 88 90 89 90 94 94 93 91 89 92 95 96 96 96 96 94 88 92 92
90 73 84 90 97 90 96 96 100 99 99 100 97 94 99 93 95 97 96 96 96 95 94 89 87 84 82 80 81 81 83 86 90 84 85 87 88 89 92 90 89 92 94 95 94 94 94 93 92 94 93 90 89 90
89 88 93 95 97 96 98 99 96 94 100 100 99 96 96 97 97 97 97 96 96 96 84 79 77 75 75 75 75 74 76 80 81 82 86 89 92 94 94 94 94 96 95 98 98 95 95 95 94 94 92 90 89 86
83 92 96 97 97 99 97 99 100 100 100 99 98 98 99 92 94 100 97 95 96 96 83 77 75 73 71 70 70 71 70 71 74 77 82 88 95 98 99 100 100 100 100 100 99 100 96 95 94 92 89 86 86 87
96 96 94 99 97 95 95 95 96 98 96 96 93 93 90 94 96 96 98 97 96 96 95 90 86 82 79 77 76 74 74 73 73 74 76 78 81 85 88 89 92 92 91 93 96 95 95 92 93 91 86 86 88 90
97 98 95 98 96 99 96 96 95 95 95 96 94 91 91 96 96 98 97 96 96 96 96 91 86 83 82 82 82 78 78 78 77 76 75 75 78 81 85 86 90 93 94 94 94 94 94 92 90 87 86 87 91 93
99 97 96 96 95 97 96 95 96 96 95 95 96 94 93 96 96 97 96 96 96 95 93 89 86 81 76 75 76 76 78 78 78 78 78 78 80 84 89 93 95 96 96 95 94 92 91 89 88 89 91 94 93 92
98 96 94 100 100 100 99 98 98 98 97 98 96 95 94 95 94 94 94 94 94 93 92 91 88 84 79 73 71 72 73 76 79 80 81 78 78 81 87 95 96 96 95 94 94 94 93 93 92 93 95 94 94 94
99 97 98 98 100 100 99 99 99 98 98 98 98 99 99 98 96 96 96 96 94 92 90 90 90 87 80 74 73 74 75 79 82 82 82 82 82 87 99 100 98 98 97 97 96 95 93 92 93 94 95 95 96 96

GFSWCAN_850_rhum_213.txt.gz
RH
60 72 62 86 91 90 99 99 97 98 100 99 98 91 92 93 90 91 94 96 98 97 88 93 90 93 93 96 94 78 90 90 90 99 96 74 97 67 75 56 79 70 82 89 71 68 76 62 38 58 50 32 58 64
81 85 86 91 94 98 100 99 97 100 99 98 90 97 90 84 77 93 89 82 90 100 99 92 70 81 83 67 96 95 86 80 74 95 97 98 77 72 67 89 52 71 56 57 57 47 32 29 30 31 45 60 66 60
94 96 98 96 100 94 93 89 92 90 96 92 94 100 93 80 70 90 84 54 100 98 87 84 60 44 52 64 64 99 85 83 88 82 92 92 92 72 88 73 77 60 50 68 66 50 45 44 42 41 42 55 52 41
89 99 95 90 88 85 87 86 88 90 90 94 92 98 91 83 78 90 98 83 100 94 95 67 64 55 47 54 65 66 64 72 87 89 95 93 92 77 79 68 70 56 54 59 60 50 44 43 43 43 43 44 41 40
72 83 85 84 83 81 79 78 83 91 84 89 90 82 84 85 94 92 81 45 58 99 85 77 71 31 42 44 50 60 77 81 100 95 95 90 71 74 72 70 80 54 59 66 75 46 44 44 44 44 45 43 42 44
76 78 77 75 78 60 54 70 75 69 82 80 77 74 80 84 92 98 83 57 53 74 94 98 53 55 49 55 55 47 56 77 99 91 89 82 78 76 94 82 48 46 46 48 50 52 52 52 54 56 54 52 51 51
88 78 74 76 85 68 57 63 73 76 52 83 74 72 54 63 90 100 84 76 90 98 98 96 93 72 51 45 45 48 45 60 86 86 91 85 84 96 93 91 55 78 95 96 89 96 94 91 91 78 68 62 57 54
74 77 73 66 57 59 65 76 74 61 73 73 70 60 55 50 37 51 54 70 70 87 86 98 94 65 47 54 59 51 60 64 68 73 89 84 96 97 96 91 89 90 83 84 81 87 96 97 88 81 67 65 63 59
74 74 60 66 67 74 60 48 64 71 69 64 58 38 24 30 45 50 60 65 76 95 96 98 96 92 67 64 58 58 70 99 70 96 91 83 93 95 93 93 87 76 80 83 84 87 85 90 95 78 72 65 64 61
72 60 65 70 76 52 65 75 64 79 74 75 60 52 42 50 56 62 70 84 93 98 97 97 91 97 83 65 76 82 72 98 97 86 90 97 95 88 70 77 83 88 91 92 94 88 84 87 84 92 79 85 70 60
70 64 68 76 75 68 67 79 91 88 79 80 78 65 59 72 88 91 91 97 89 96 91 96 96 94 66 99 94 67 96 96 96 87 96 95 94 63 77 88 93 96 98 99 99 98 98 99 97 94 82 86 87 64
66 75 76 69 64 63 81 90 87 91 100 99 94 92 99 97 92 92 100 90 97 98 91 99 86 82 67 73 98 85 97 96 95 95 96 94 59 73 91 96 99 100 97 97 98 100 97 100 100 97 84 80 90 70
76 64 65 52 65 67 72 77 73 77 78 77 93 96 96 85 97 98 96 91 100 92 88 92 94 74 72 76 100 97 98 93 89 95 91 88 71 91 97 98 97 96 98 98 98 98 98 100 100 94 74 82 88 64
77 66 54 66 65 67 68 70 68 72 75 99 95 96 96 91 96 91 92 91 80 89 97 94 86 79 81 99 95 96 85 95 89 94 96 80 95 98 97 97 98 99 97 97 98 97 96 97 100 94 99 100 83 91
64 63 66 61 51 70 81 80 70 72 98 100 98 96 99 71 62 62 69 87 94 96 94 90 92 98 96 96 95 95 93 95 91 92 91 95 96 97 96 97 97 97 97 97 97 96 96 98 98 98 99 100 100 98
76 57 42 60 74 89 100 82 74 99 97 100 98 100 91 95 73 86 95 94 94 96 96 94 100 97 94 96 95 96 94 95 93 94 96 96 96 96 96 96 96 96 97 97 97 97 96 95 96 97 96 96 97 96
57 63 69 72 80 91 100 100 100 92 98 100 93 87 87 96 99 95 95 96 95 96 97 95 97 95 95 95 95 92 95 94 96 97 95 95 100 95 90 93 96 96 96 96 96 96 96 96 95 95 96 97 96 96
78 84 84 83 96 100 91 97 100 97 97 93 90 72 97 95 94 92 95 96 96 97 96 96 95 94 96 95 93 93 95 96 96 96 95 91 81 77 82 79 82 92 94 95 94 95 94 93 95 96 96 96 95 96
92 89 92 100 100 100 98 91 85 80 75 88 92 96 97 95 88 84 94 96 98 97 96 94 94 97 93 95 95 97 96 96 96 96 94 83 79 76 68 68 69 72 74 85 84 91 95 94 96 96 95 91 91 91
90 82 88 100 100 97 95 80 73 79 100 97 96 97 98 96 95 88 93 95 94 94 91 95 96 96 96 96 97 96 96 96 95 83 83 77 74 74 76 79 81 76 73 72 77 73 74 74 77 83 83 81 83 91
64 67 90 98 100 95 100 74 68 94 97 96 98 98 98 96 95 92 91 84 85 95 96 96 96 96 96 96 96 96 96 93 87 94 96 94 82 80 80 78 77 79 79 79 83 92 97 98 93 93 88 91 94 92
59 84 92 80 93 96 80 75 70 70 70 74 84 100 95 95 94 95 95 79 95 96 96 96 96 96 96 96 96 96 91 91 94 96 92 85 84 83 86 88 85 88 90 95 94 94 95 100 100 94 90 89 85 88
81 86 83 88 93 70 64 64 66 78 80 74 89 92 94 97 96 95 95 95 95 96 96 96 96 96 96 96 96 96 95 95 90 84 86 90 94 94 94 95 95 95 96 100 100 98 96 95 90 90 91 91 90 90
70 84 79 71 73 69 68 78 84 84 83 90 98 96 94 96 99 93 97 96 95 96 96 96 96 96 97 97 95 95 92 86 87 87 88 89 90 92 93 95 96 98 100 100 99 98 97 97 97 94 92 91 88 87
83 78 72 75 84 86 93 97 95 92 98 100 99 98 93 99 98 98 98 96 96 96 96 96 96 96 95 95 91 86 84 83 85 87 89 90 90 90 91 95 97 97 95 93 96 97 96 96 95 95 89 90 89 89
92 79 77 78 92 91 93 94 100 98 99 100 98 95 100 94 98 95 99 96 95 96 96 95 92 85 81 80 80 80 82 84 86 88 85 86 87 88 91 90 89 94 96 98 95 94 97 97 95 95 94 91 92 94
97 84 84 89 94 93 97 98 97 95 100 100 99 98 99 100 98 93 96 95 95 95 95 84 77 76 75 75 75 74 73 74 75 77 81 87 91 94 95 95 95 96 97 100 99 96 98 96 95 93 90 90 89 90
84 88 94 96 99 99 94 99 100 100 98 95 97 100 100 94 91 96 96 95 96 96 91 80 78 77 76 76 75 75 73 71 72 73 75 78 88 96 99 100 100 100 100 98 96 96 95 95 94 90 90 89 90 91
94 94 93 98 97 98 94 93 92 92 94 95 96 95 85 90 92 94 96 96 96 96 95 92 87 83 81 79 78 77 76 76 73 70 72 75 79 86 90 93 96 96 96 96 97 96 93 92 90 89 89 89 91 92
95 97 96 97 96 97 92 92 92 93 96 95 96 92 89 86 89 94 96 97 96 96 96 94 88 82 79 77 76 76 75 74 73 73 74 75 77 79 82 86 91 94 95 95 95 95 94 90 88 89 90 92 93 94
99 98 96 96 94 97 94 91 90 94 95 96 96 96 89 91 95 95 96 95 96 96 96 93 87 83 78 74 72 71 73 74 74 75 77 78 78 79 83 89 94 94 95 94 94 92 90 89 88 89 91 92 92 93
99 97 95 100 100 100 98 97 99 100 98 98 97 97 96 96 95 94 92 95 96 96 96 94 92 88 84 81 75 73 72 75 77 77 78 75 75 75 82 92 95 94 94 95 94 94 91 90 90 92 93 93 94 94
99 97 98 96 99 100 99 100 100 99 100 99 99 98 98 99 96 96 95 95 95 92 92 90 89 87 84 78 73 72 72 74 77 77 76 78 77 82 95 100 98 95 95 95 94 93 91 91 92 94 95 96 95 93

GFSWCAN_850_rhum_216.txt.gz
RH
22 37 64 72 83 98 100 99 99 93 90 82 88 81 95 93 89 88 87 91 92 97 91 96 88 90 84 74 80 62 85 75 78 77 62 45 46 39 44 37 43 49 50 44 40 64 69 24 41 42 31 31 28 31
52 62 63 86 91 78 99 85 89 81 92 86 94 84 97 88 89 92 97 80 100 99 90 85 67 89 88 73 86 85 78 71 78 81 73 76 62 50 55 81 36 56 44 48 37 35 23 24 28 26 27 32 37 38
49 49 81 92 99 89 83 88 90 84 85 92 87 72 72 85 86 89 86 80 100 95 89 91 43 32 59 48 52 92 72 72 73 73 82 78 82 54 76 54 43 36 40 58 61 41 35 35 36 37 38 40 40 40
75 66 80 85 84 83 76 79 83 74 84 86 74 58 78 68 78 85 85 79 100 94 91 62 44 41 44 57 65 63 66 72 78 85 95 90 86 56 61 51 52 46 44 52 52 45 43 43 41 40 40 42 44 46
68 69 84 80 73 75 78 68 70 69 63 73 61 71 62 66 76 77 63 51 78 99 81 68 54 41 43 55 60 62 74 95 96 95 90 84 62 68 66 60 70 50 58 77 76 51 52 55 56 55 56 55 54 53
87 85 76 76 71 84 85 66 75 65 77 69 56 65 63 62 83 100 75 68 61 71 95 85 56 52 48 52 41 44 46 63 98 87 77 74 71 76 90 70 42 92 86 82 89 91 84 84 90 83 82 87 81 79
85 86 81 75 68 60 62 74 72 66 64 75 65 60 48 49 66 100 85 82 98 99 97 94 76 68 51 47 49 44 40 58 84 78 77 77 77 96 89 90 87 73 72 69 69 75 90 77 72 73 81 98 92 88
80 75 71 66 63 71 73 56 55 76 70 60 46 40 41 31 33 36 55 83 84 80 87 92 83 65 54 61 57 44 53 59 66 70 74 74 87 94 93 73 72 69 72 70 66 73 76 78 79 76 77 93 97 84
71 74 68 58 66 73 60 57 66 71 74 69 53 33 24 34 38 57 66 65 70 96 93 97 88 72 77 67 56 51 70 81 83 84 79 89 90 91 89 76 75 76 80 87 90 91 88 82 79 74 73 77 92 98
81 67 65 64 73 72 63 70 78 77 68 54 37 44 43 46 54 68 83 92 93 98 97 94 90 92 76 59 72 80 76 87 88 73 90 92 89 70 66 79 87 91 94 96 96 87 85 87 86 82 81 81 80 80
79 68 65 72 69 61 49 62 67 73 60 74 79 73 55 80 94 91 84 89 91 94 90 97 97 74 61 70 70 78 88 88 91 89 93 89 65 62 81 95 98 98 98 100 100 98 100 99 99 97 91 88 88 84
71 69 65 61 56 65 57 58 80 70 76 86 93 99 97 89 90 85 94 89 96 90 91 97 91 84 69 80 100 85 90 85 88 92 79 71 62 83 96 98 97 97 97 97 98 97 97 97 97 99 97 94 94 96
70 73 66 54 56 59 64 75 69 69 64 69 100 87 95 81 86 81 72 78 86 86 93 94 86 76 71 77 98 92 92 86 94 80 83 70 79 94 97 98 98 97 97 97 97 96 97 100 100 100 100 97 97 98
77 72 55 58 62 54 53 72 78 80 89 93 90 92 97 88 84 79 76 77 79 96 97 97 94 85 82 92 88 92 76 92 82 81 81 77 95 98 97 97 99 98 97 97 97 97 97 97 97 98 98 97 97 98
70 57 58 48 42 57 89 99 84 84 96 100 98 96 97 78 69 64 71 95 95 95 97 96 94 100 90 92 90 90 90 88 81 84 85 94 95 96 96 95 96 97 97 97 97 97 97 96 96 96 96 96 97 97
64 49 40 44 51 70 92 100 80 92 98 96 95 98 93 96 79 86 93 98 98 94 90 98 93 93 90 92 93 91 86 86 85 89 98 96 94 95 94 96 96 96 96 96 96 96 96 96 96 97 96 96 96 96
53 58 66 72 78 90 100 100 100 97 94 96 96 90 88 94 99 96 97 95 93 95 92 95 93 91 89 91 87 85 88 87 94 99 96 95 96 95 88 92 91 93 95 96 96 96 96 95 92 90 94 97 96 96
65 71 76 85 91 79 74 90 100 100 96 93 92 73 92 99 96 90 85 95 94 99 99 93 98 90 90 90 87 86 94 100 96 98 96 95 95 84 86 88 89 87 91 96 94 94 88 87 92 96 95 96 95 96
86 80 83 84 84 94 94 98 90 89 78 78 84 92 100 98 96 85 87 96 99 98 97 94 87 92 88 91 92 98 100 99 100 96 96 95 85 82 80 77 81 84 88 91 94 89 93 89 95 94 94 94 93 93
73 67 67 72 82 89 99 93 82 80 88 92 94 96 99 98 97 90 84 93 94 93 90 91 90 98 99 97 97 97 96 98 97 95 95 94 87 87 89 89 92 89 87 86 85 92 83 85 83 86 90 86 89 95
72 64 61 77 83 81 96 93 72 80 92 95 100 95 99 98 96 93 88 79 81 94 96 96 96 97 96 96 96 96 96 96 96 98 100 100 92 91 91 91 90 94 93 91 93 91 93 100 98 93 93 95 99 94
71 66 77 77 81 92 98 91 83 74 71 75 81 98 98 95 93 94 96 86 91 94 95 95 96 96 96 96 96 96 96 96 95 88 88 86 87 89 93 95 93 95 97 100 100 100 100 100 100 94 96 99 91 88
67 77 78 88 96 85 72 69 68 76 84 78 88 97 97 96 96 96 91 94 95 95 94 95 95 95 96 96 96 97 96 90 84 87 88 90 93 94 93 94 94 92 95 99 97 96 98 99 99 96 92 84 79 80
63 69 84 80 80 71 70 75 82 89 88 91 98 96 96 98 100 95 93 98 94 95 95 95 95 95 96 96 96 95 87 88 89 88 88 89 90 93 95 97 99 100 100 100 100 99 97 96 96 90 88 87 87 88
71 77 78 72 80 84 93 90 93 92 95 100 100 97 94 100 96 96 92 97 96 94 95 95 95 95 95 95 90 86 87 87 84 85 88 90 92 94 96 98 97 96 96 92 92 95 98 99 97 94 87 89 90 89
92 77 74 69 85 89 86 92 99 93 97 100 98 96 100 97 99 94 92 94 95 95 95 95 95 95 88 78 78 79 79 80 80 82 84 86 87 88 91 91 91 96 98 100 99 97 97 96 94 91 90 92 93 93
99 88 83 83 92 92 96 96 94 94 100 100 96 99 99 100 99 85 93 93 94 95 95 95 87 76 75 75 75 74 73 72 73 76 78 83 88 92 93 93 94 97 96 100 100 99 100 99 96 94 94 95 95 95
84 87 90 92 100 97 93 97 99 98 91 92 94 99 99 93 85 90 92 95 96 96 95 93 79 76 77 77 77 76 76 73 72 74 77 78 83 90 96 100 100 100 100 100 99 98 98 96 95 95 95 96 96 95
91 92 93 97 96 98 94 93 90 86 90 90 94 91 84 84 83 85 90 94 96 96 96 95 91 84 82 80 79 78 77 77 76 77 77 77 80 87 93 96 98 99 99 99 99 96 93 92 93 94 94 94 94 93
93 96 96 96 97 98 91 93 92 91 94 96 96 95 92 86 83 85 91 95 96 96 97 96 96 92 82 77 76 75 75 75 75 74 74 75 78 82 86 91 96 98 97 97 98 97 95 94 94 93 94 95 95 95
98 100 96 97 96 96 95 96 92 94 96 96 96 97 94 91 89 90 95 97 96 96 96 96 96 91 84 80 75 73 73 74 74 75 77 79 80 82 86 92 95 95 95 96 97 96 93 94 93 93 94 93 92 92
100 98 96 99 97 99 98 96 98 98 99 97 96 96 95 95 95 96 91 94 96 96 96 96 95 92 89 85 81 76 73 73 74 76 78 77 76 77 86 94 96 96 95 95 96 94 92 93 93 93 93 93 93 93
99 97 98 97 99 100 99 99 98 99 99 99 98 98 97 97 95 96 95 96 97 97 96 95 94 92 88 83 77 73 72 74 77 78 78 78 79 83 93 97 97 97 96 96 96 93 94 95 95 95 94 94 94 94